N0GO-2 Weather Reports


Display with metric or nautical units.
time (UTC)temp
F
wind
direction
speed
MPH
gust
MPH
rain 1hr
in
rain 24hr
in
rain mn
in
humidity
%
barometer
mb
20260906173803 98 293 1.0 3.0 0.00 0.00 0.00 42 1018.2
20260906173603 98 186 0.0 3.0 0.00 0.00 0.00 42 1018.1
20260906173503 98 176 1.0 3.0 0.00 0.00 0.00 41 1018.3
20260906173403 98 175 2.0 3.0 0.00 0.00 0.00 41 1018.3
20260906173304 97 183 2.0 3.0 0.00 0.00 0.00 42 1018.3
20260906173103 97 226 1.0 3.0 0.00 0.00 0.00 42 1018.4
20260906173003 97 252 1.0 3.0 0.00 0.00 0.00 42 1018.3
20260906172903 97 276 1.0 3.0 0.00 0.00 0.00 42 1018.4
20260906172803 97 295 2.0 3.0 0.00 0.00 0.00 41 1018.4
20260906172703 97 305 2.0 3.0 0.00 0.00 0.00 41 1018.3
20260906172503 97 307 0.0 3.0 0.00 0.00 0.00 42 1018.5
20260906172403 97 302 0.0 3.0 0.00 0.00 0.00 42 1018.6
20260906172306 97 298 0.0 3.0 0.00 0.00 0.00 42 1018.5
20260906172203 97 295 2.0 3.0 0.00 0.00 0.00 42 1018.5
20260906172103 97 267 2.0 4.0 0.00 0.00 0.00 42 1018.5
20260906172003 97 179 2.0 4.0 0.00 0.00 0.00 42 1018.6
20260906171904 97 175 2.0 4.0 0.00 0.00 0.00 42 1018.5
20260906171803 97 163 2.0 4.0 0.00 0.00 0.00 42 1018.6
20260906171703 97 151 1.0 4.0 0.00 0.00 0.00 42 1018.5
20260906171603 97 134 2.0 4.0 0.00 0.00 0.00 42 1018.5
20260906171503 97 117 1.0 4.0 0.00 0.00 0.00 42 1018.7
20260906171403 97 90 2.0 4.0 0.00 0.00 0.00 43 1018.6
20260906171304 97 68 2.0 4.0 0.00 0.00 0.00 43 1018.6
20260906171203 97 50 1.0 4.0 0.00 0.00 0.00 42 1018.7
20260906171103 97 32 2.0 4.0 0.00 0.00 0.00 42 1018.6
20260906171003 97 15 2.0 2.0 0.00 0.00 0.00 42 1018.7
20260906170903 97 22 1.0 2.0 0.00 0.00 0.00 43 1018.7
20260906170804 97 27 1.0 2.0 0.00 0.00 0.00 43 1018.8
20260906170603 97 29 1.0 2.0 0.00 0.00 0.00 43 1018.7
20260906170503 97 24 2.0 2.0 0.00 0.00 0.00 43 1018.6
20260906170403 97 20 2.0 2.0 0.00 0.00 0.00 43 1018.6
20260906170303 97 15 2.0 2.0 0.00 0.00 0.00 43 1018.7
20260906170103 97 15 2.0 3.0 0.00 0.00 0.00 44 1018.7
20260906170004 97 7 2.0 3.0 0.00 0.00 0.00 44 1018.6
20260906165903 97 1 2.0 3.0 0.00 0.00 0.00 44 1018.9
20260906165803 97 354 1.0 3.0 0.00 0.00 0.00 44 1018.9
20260906165603 96 354 2.0 4.0 0.00 0.00 0.00 44 1018.9
20260906165503 96 3 2.0 4.0 0.00 0.00 0.00 44 1018.8
20260906165403 96 5 1.0 4.0 0.00 0.00 0.00 44 1018.9
20260906165306 96 11 0.0 4.0 0.00 0.00 0.00 44 1018.9
20260906165203 96 17 2.0 4.0 0.00 0.00 0.00 45 1018.9
20260906165103 96 24 2.0 4.0 0.00 0.00 0.00 45 1018.9
20260906165003 96 32 2.0 4.0 0.00 0.00 0.00 46 1018.9
20260906164804 96 41 2.0 4.0 0.00 0.00 0.00 46 1018.8
20260906164703 96 67 2.0 4.0 0.00 0.00 0.00 46 1018.9
20260906164603 96 92 2.0 3.0 0.00 0.00 0.00 45 1018.9
20260906164503 96 75 1.0 2.0 0.00 0.00 0.00 45 1018.9
20260906164404 96 64 1.0 2.0 0.00 0.00 0.00 45 1018.9
20260906164303 96 60 1.0 2.0 0.00 0.00 0.00 45 1019.0
20260906164203 96 62 2.0 2.0 0.00 0.00 0.00 44 1019.0
20260906164003 96 137 0.0 2.0 0.00 0.00 0.00 44 1019.0
20260906163906 96 127 1.0 4.0 0.00 0.00 0.00 44 1019.0
20260906163803 97 125 2.0 4.0 0.00 0.00 0.00 43 1019.1
20260906163704 97 114 2.0 4.0 0.00 0.00 0.00 43 1019.0
20260906163603 97 96 2.0 4.0 0.00 0.00 0.00 43 1019.1
20260906163503 97 99 2.0 4.0 0.00 0.00 0.00 43 1019.0
20260906163403 98 103 1.0 4.0 0.00 0.00 0.00 43 1018.9
20260906163203 98 119 2.0 4.0 0.00 0.00 0.00 43 1019.0
20260906163004 98 116 2.0 4.0 0.00 0.00 0.00 43 1018.9
20260906162903 98 122 2.0 4.0 0.00 0.00 0.00 44 1019.0
20260906162803 98 119 2.0 3.0 0.00 0.00 0.00 44 1019.0
20260906162503 97 154 1.0 3.0 0.00 0.00 0.00 45 1018.9
20260906162406 96 173 1.0 3.0 0.00 0.00 0.00 46 1019.1
20260906162306 96 164 1.0 4.0 0.00 0.00 0.00 46 1018.9
20260906162203 96 161 2.0 5.0 0.00 0.00 0.00 46 1019.0
20260906162103 96 160 2.0 5.0 0.00 0.00 0.00 46 1018.9
20260906162004 96 148 1.0 5.0 0.00 0.00 0.00 46 1018.9
20260906161904 95 131 1.0 5.0 0.00 0.00 0.00 46 1019.1
20260906161803 95 127 1.0 5.0 0.00 0.00 0.00 46 1019.0
20260906161703 95 134 2.0 5.0 0.00 0.00 0.00 46 1019.1
20260906161603 94 135 1.0 5.0 0.00 0.00 0.00 46 1019.1
20260906161503 94 136 2.0 5.0 0.00 0.00 0.00 45 1019.0
20260906161403 94 134 3.0 5.0 0.00 0.00 0.00 45 1018.9
20260906161303 95 133 4.0 5.0 0.00 0.00 0.00 45 1019.0
20260906161203 95 128 4.0 5.0 0.00 0.00 0.00 45 1019.0
20260906161103 95 128 2.0 4.0 0.00 0.00 0.00 45 1019.0
20260906161003 94 128 2.0 4.0 0.00 0.00 0.00 46 1018.9
20260906160906 94 134 2.0 4.0 0.00 0.00 0.00 46 1019.0
20260906160803 94 136 2.0 4.0 0.00 0.00 0.00 46 1018.9
20260906160703 94 139 3.0 4.0 0.00 0.00 0.00 46 1018.9
20260906160603 94 140 2.0 4.0 0.00 0.00 0.00 48 1018.9
20260906160504 94 137 2.0 4.0 0.00 0.00 0.00 48 1019.0
20260906160403 94 141 2.0 4.0 0.00 0.00 0.00 48 1018.9
20260906160203 94 147 2.0 4.0 0.00 0.00 0.00 48 1018.9
20260906160103 94 151 2.0 4.0 0.00 0.00 0.00 48 1018.9
20260906160003 94 156 2.0 4.0 0.00 0.00 0.00 48 1018.9
20260906155904 94 169 2.0 4.0 0.00 0.00 0.00 48 1018.9
20260906155803 93 178 2.0 4.0 0.00 0.00 0.00 49 1018.9
20260906155703 93 194 2.0 4.0 0.00 0.00 0.00 49 1018.9
20260906155603 93 228 1.0 3.0 0.00 0.00 0.00 49 1018.9
20260906155503 93 227 2.0 3.0 0.00 0.00 0.00 49 1018.8
20260906155406 93 276 2.0 3.0 0.00 0.00 0.00 50 1018.7
20260906155203 93 330 1.0 3.0 0.00 0.00 0.00 50 1018.8
20260906155103 92 343 2.0 4.0 0.00 0.00 0.00 50 1018.9
20260906155003 92 352 2.0 4.0 0.00 0.00 0.00 50 1018.8
20260906154904 92 355 1.0 4.0 0.00 0.00 0.00 51 1018.8
20260906154703 92 357 1.0 4.0 0.00 0.00 0.00 51 1018.8
20260906154603 91 358 2.0 4.0 0.00 0.00 0.00 52 1018.7
20260906154503 91 348 1.0 4.0 0.00 0.00 0.00 52 1018.8
20260906154403 90 349 1.0 4.0 0.00 0.00 0.00 55 1018.7
20260906154303 90 356 1.0 4.0 0.00 0.00 0.00 55 1018.8
20260906154204 90 6 2.0 5.0 0.00 0.00 0.00 55 1018.8
20260906154003 90 48 2.0 5.0 0.00 0.00 0.00 56 1018.8
20260906153906 89 74 2.0 5.0 0.00 0.00 0.00 56 1018.7
20260906153803 89 81 1.0 5.0 0.00 0.00 0.00 57 1018.8
20260906153603 89 117 2.0 5.0 0.00 0.00 0.00 57 1018.7
20260906153503 89 114 2.0 5.0 0.00 0.00 0.00 57 1018.7
20260906153403 89 120 2.0 5.0 0.00 0.00 0.00 57 1018.6
20260906153303 89 137 2.0 5.0 0.00 0.00 0.00 57 1018.7
20260906153204 89 161 3.0 5.0 0.00 0.00 0.00 57 1018.8
20260906153103 89 183 3.0 4.0 0.00 0.00 0.00 58 1018.8
20260906153003 89 215 2.0 3.0 0.00 0.00 0.00 59 1018.7
20260906152803 89 253 2.0 2.0 0.00 0.00 0.00 59 1018.6
20260906152703 89 207 1.0 2.0 0.00 0.00 0.00 60 1018.8
20260906152604 89 295 2.0 2.0 0.00 0.00 0.00 60 1018.8
20260906152405 88 308 0.0 2.0 0.00 0.00 0.00 60 1018.7
20260906152306 88 287 1.0 3.0 0.00 0.00 0.00 60 1018.7
20260906152003 88 352 1.0 3.0 0.00 0.00 0.00 60 1018.7
20260906151903 88 6 1.0 3.0 0.00 0.00 0.00 60 1018.7
20260906151803 88 21 1.0 3.0 0.00 0.00 0.00 60 1018.7
20260906151703 88 16 1.0 3.0 0.00 0.00 0.00 60 1018.8
20260906151604 88 10 1.0 4.0 0.00 0.00 0.00 60 1018.7
20260906151504 88 10 2.0 4.0 0.00 0.00 0.00 60 1018.8
20260906151403 88 18 2.0 4.0 0.00 0.00 0.00 60 1018.7
20260906151203 88 29 2.0 4.0 0.00 0.00 0.00 60 1018.8
20260906151104 87 28 1.0 4.0 0.00 0.00 0.00 60 1018.7
20260906151004 87 34 2.0 4.0 0.00 0.00 0.00 60 1018.7
20260906150906 87 37 1.0 4.0 0.00 0.00 0.00 61 1018.7
20260906150803 87 20 2.0 4.0 0.00 0.00 0.00 61 1018.7
20260906150603 87 356 0.0 4.0 0.00 0.00 0.00 61 1018.8
20260906150503 87 351 0.0 4.0 0.00 0.00 0.00 61 1018.8
20260906150403 87 351 0.0 4.0 0.00 0.00 0.00 62 1018.7
20260906150203 86 355 1.0 4.0 0.00 0.00 0.00 61 1018.7
20260906150103 86 10 2.0 4.0 0.00 0.00 0.00 61 1018.8
20260906150003 86 17 1.0 4.0 0.00 0.00 0.00 61 1018.7
20260906145903 86 92 2.0 4.0 0.00 0.00 0.00 61 1018.7
20260906145803 86 146 2.0 4.0 0.00 0.00 0.00 62 1018.8
20260906145704 86 143 2.0 4.0 0.00 0.00 0.00 62 1018.7
20260906145503 86 141 2.0 4.0 0.00 0.00 0.00 61 1018.7
20260906145405 86 135 2.0 4.0 0.00 0.00 0.00 61 1018.7
20260906145306 86 132 2.0 4.0 0.00 0.00 0.00 61 1018.8
20260906145203 86 127 2.0 4.0 0.00 0.00 0.00 62 1018.9
20260906145103 85 120 2.0 4.0 0.00 0.00 0.00 62 1018.8
20260906145003 85 109 1.0 4.0 0.00 0.00 0.00 62 1018.8
20260906144903 85 103 2.0 4.0 0.00 0.00 0.00 62 1018.8
20260906144804 85 101 2.0 3.0 0.00 0.00 0.00 62 1018.9
20260906144703 85 105 2.0 3.0 0.00 0.00 0.00 62 1018.9
20260906144503 85 119 2.0 3.0 0.00 0.00 0.00 62 1018.9
20260906144403 85 123 2.0 3.0 0.00 0.00 0.00 62 1018.9
20260906144303 85 124 2.0 3.0 0.00 0.00 0.00 62 1018.8
20260906144203 85 121 2.0 3.0 0.00 0.00 0.00 62 1018.9
20260906144003 85 129 2.0 3.0 0.00 0.00 0.00 62 1018.9
20260906143905 85 139 2.0 3.0 0.00 0.00 0.00 62 1018.9
20260906143804 85 142 2.0 3.0 0.00 0.00 0.00 62 1018.9
20260906143703 85 138 2.0 3.0 0.00 0.00 0.00 62 1018.9
20260906143603 85 137 2.0 3.0 0.00 0.00 0.00 62 1018.8
20260906143503 85 143 2.0 3.0 0.00 0.00 0.00 62 1018.9
20260906143403 85 147 2.0 3.0 0.00 0.00 0.00 62 1018.8
20260906143303 84 150 0.0 3.0 0.00 0.00 0.00 62 1018.8
20260906143204 84 149 2.0 3.0 0.00 0.00 0.00 62 1018.9
20260906143104 84 158 2.0 3.0 0.00 0.00 0.00 62 1018.9
20260906143003 84 169 2.0 2.0 0.00 0.00 0.00 62 1018.7
20260906142903 84 153 2.0 2.0 0.00 0.00 0.00 63 1018.8
20260906142803 84 148 2.0 2.0 0.00 0.00 0.00 63 1018.7
20260906142703 84 140 1.0 2.0 0.00 0.00 0.00 63 1018.8
20260906142604 84 129 1.0 2.0 0.00 0.00 0.00 63 1018.8
20260906142503 84 131 1.0 2.0 0.00 0.00 0.00 63 1018.8
20260906142306 84 127 1.0 2.0 0.00 0.00 0.00 63 1018.9
20260906142203 84 145 1.0 2.0 0.00 0.00 0.00 63 1018.8
20260906142103 84 163 0.0 2.0 0.00 0.00 0.00 63 1018.8
20260906142003 84 182 1.0 2.0 0.00 0.00 0.00 63 1018.7
20260906141903 84 186 0.0 3.0 0.00 0.00 0.00 63 1018.7
20260906141803 84 239 2.0 3.0 0.00 0.00 0.00 63 1018.7
20260906141703 84 318 1.0 3.0 0.00 0.00 0.00 63 1018.8
20260906141504 84 354 1.0 3.0 0.00 0.00 0.00 63 1018.6
20260906141404 83 17 1.0 3.0 0.00 0.00 0.00 63 1018.6
20260906141303 83 43 2.0 3.0 0.00 0.00 0.00 64 1018.8
20260906141003 83 65 1.0 3.0 0.00 0.00 0.00 64 1018.7
20260906140906 83 73 2.0 3.0 0.00 0.00 0.00 64 1018.6
20260906140803 83 84 2.0 2.0 0.00 0.00 0.00 64 1018.6
20260906140703 82 92 2.0 3.0 0.00 0.00 0.00 64 1018.7
20260906140603 82 97 2.0 3.0 0.00 0.00 0.00 65 1018.6
20260906140504 82 98 2.0 3.0 0.00 0.00 0.00 65 1018.7
20260906140403 82 92 2.0 3.0 0.00 0.00 0.00 65 1018.6
20260906140303 82 86 2.0 3.0 0.00 0.00 0.00 65 1018.7
20260906140203 82 83 2.0 3.0 0.00 0.00 0.00 65 1018.6
20260906140003 82 87 2.0 3.0 0.00 0.00 0.00 65 1018.6
20260906135803 82 253 2.0 3.0 0.00 0.00 0.00 65 1018.7
20260906135703 82 323 2.0 3.0 0.00 0.00 0.00 65 1018.7
20260906135603 82 328 2.0 3.0 0.00 0.00 0.00 65 1018.7
20260906135503 82 348 2.0 3.0 0.00 0.00 0.00 65 1018.5
20260906135406 82 19 1.0 3.0 0.00 0.00 0.00 64 1018.7
20260906135305 82 74 1.0 3.0 0.00 0.00 0.00 64 1018.6
20260906135204 82 106 2.0 3.0 0.00 0.00 0.00 64 1018.6
20260906135104 82 65 1.0 2.0 0.00 0.00 0.00 65 1018.6
20260906135003 82 59 1.0 2.0 0.00 0.00 0.00 65 1018.6
20260906134903 82 46 1.0 2.0 0.00 0.00 0.00 65 1018.6
20260906134803 82 38 1.0 2.0 0.00 0.00 0.00 65 1018.6
20260906134703 82 46 2.0 2.0 0.00 0.00 0.00 65 1018.6
20260906134603 81 46 1.0 2.0 0.00 0.00 0.00 69 1018.7
20260906134403 81 41 1.0 2.0 0.00 0.00 0.00 69 1018.8
20260906134303 81 20 1.0 3.0 0.00 0.00 0.00 69 1018.7
20260906134203 81 7 2.0 3.0 0.00 0.00 0.00 69 1018.7
20260906134003 81 20 2.0 3.0 0.00 0.00 0.00 69 1018.6
20260906133906 81 25 2.0 3.0 0.00 0.00 0.00 69 1018.9
20260906133703 81 27 1.0 3.0 0.00 0.00 0.00 69 1018.6
20260906133404 81 26 2.0 3.0 0.00 0.00 0.00 69 1018.6
20260906133303 81 46 1.0 2.0 0.00 0.00 0.00 69 1018.7
20260906133203 81 48 1.0 3.0 0.00 0.00 0.00 69 1018.6
20260906133103 81 52 1.0 3.0 0.00 0.00 0.00 69 1018.7
20260906133004 81 47 2.0 3.0 0.00 0.00 0.00 69 1018.6
20260906132903 81 45 2.0 3.0 0.00 0.00 0.00 69 1018.4
20260906132803 81 37 2.0 3.0 0.00 0.00 0.00 69 1018.6
20260906132703 81 34 2.0 3.0 0.00 0.00 0.00 69 1018.7
20260906132603 81 32 2.0 3.0 0.00 0.00 0.00 69 1018.4
20260906132504 81 27 1.0 3.0 0.00 0.00 0.00 69 1018.6
20260906132406 81 23 1.0 3.0 0.00 0.00 0.00 69 1018.5
20260906132306 80 19 2.0 3.0 0.00 0.00 0.00 69 1018.5
20260906132204 80 15 2.0 3.0 0.00 0.00 0.00 69 1018.6
20260906132003 80 13 2.0 3.0 0.00 0.00 0.00 69 1018.5
20260906131903 80 16 2.0 3.0 0.00 0.00 0.00 69 1018.5
20260906131803 80 17 1.0 3.0 0.00 0.00 0.00 69 1018.4
20260906131703 80 16 1.0 3.0 0.00 0.00 0.00 69 1018.5
20260906131603 80 14 1.0 3.0 0.00 0.00 0.00 69 1018.5
20260906131504 80 11 2.0 3.0 0.00 0.00 0.00 70 1018.4
20260906131404 80 10 1.0 2.0 0.00 0.00 0.00 70 1018.4
20260906131303 80 10 1.0 2.0 0.00 0.00 0.00 70 1018.3
20260906131203 80 8 2.0 2.0 0.00 0.00 0.00 70 1018.3
20260906131103 80 6 2.0 2.0 0.00 0.00 0.00 70 1018.2
20260906130906 80 359 2.0 2.0 0.00 0.00 0.00 70 1018.3
20260906130803 80 357 2.0 2.0 0.00 0.00 0.00 70 1018.3
20260906130703 80 357 1.0 2.0 0.00 0.00 0.00 70 1018.5
20260906130504 79 357 2.0 2.0 0.00 0.00 0.00 70 1018.3
20260906130404 79 357 2.0 2.0 0.00 0.00 0.00 71 1018.4
20260906130303 79 357 2.0 3.0 0.00 0.00 0.00 71 1018.3
20260906130203 79 357 2.0 3.0 0.00 0.00 0.00 71 1018.4
20260906130103 79 357 2.0 3.0 0.00 0.00 0.00 71 1018.2
20260906130003 79 357 2.0 3.0 0.00 0.00 0.00 71 1018.3
20260906125904 79 359 2.0 3.0 0.00 0.00 0.00 71 1018.3
20260906125803 79 1 2.0 3.0 0.00 0.00 0.00 71 1018.3
20260906125703 79 1 2.0 3.0 0.00 0.00 0.00 71 1018.3
20260906125603 79 1 2.0 3.0 0.00 0.00 0.00 71 1018.2
20260906125503 79 1 2.0 3.0 0.00 0.00 0.00 71 1018.2
20260906125406 79 1 2.0 3.0 0.00 0.00 0.00 71 1018.3
20260906125306 78 1 2.0 3.0 0.00 0.00 0.00 71 1018.3
20260906125103 78 1 1.0 2.0 0.00 0.00 0.00 71 1018.2
20260906125003 78 1 1.0 2.0 0.00 0.00 0.00 71 1018.1
20260906124904 78 1 1.0 2.0 0.00 0.00 0.00 71 1018.1
20260906124804 78 1 2.0 2.0 0.00 0.00 0.00 71 1018.2
20260906124703 78 1 1.0 2.0 0.00 0.00 0.00 71 1018.2
20260906124403 78 1 1.0 2.0 0.00 0.00 0.00 71 1018.0
20260906124304 78 1 1.0 2.0 0.00 0.00 0.00 71 1018.0
20260906124204 78 1 1.0 2.0 0.00 0.00 0.00 71 1018.0
20260906124003 78 355 1.0 2.0 0.00 0.00 0.00 71 1017.9
20260906123906 78 356 0.0 2.0 0.00 0.00 0.00 71 1018.0
20260906123803 78 356 1.0 2.0 0.00 0.00 0.00 72 1017.9
20260906123704 78 356 1.0 2.0 0.00 0.00 0.00 72 1018.0
20260906123603 78 356 2.0 2.0 0.00 0.00 0.00 72 1017.8
20260906123503 78 355 2.0 2.0 0.00 0.00 0.00 72 1017.9
20260906123403 78 355 1.0 2.0 0.00 0.00 0.00 72 1017.9
20260906123303 78 355 1.0 2.0 0.00 0.00 0.00 72 1017.8
20260906123204 78 355 0.0 2.0 0.00 0.00 0.00 72 1017.9
20260906123103 78 356 0.0 2.0 0.00 0.00 0.00 72 1017.9
20260906123003 77 1 1.0 2.0 0.00 0.00 0.00 72 1017.9
20260906122803 77 1 0.0 2.0 0.00 0.00 0.00 72 1017.8
20260906122604 77 1 1.0 2.0 0.00 0.00 0.00 72 1017.8
20260906122404 77 1 1.0 2.0 0.00 0.00 0.00 72 1017.8
20260906122203 77 1 1.0 2.0 0.00 0.00 0.00 72 1017.7
20260906122103 77 1 2.0 2.0 0.00 0.00 0.00 72 1017.8
20260906121803 77 1 1.0 2.0 0.00 0.00 0.00 73 1017.8
20260906121703 77 1 1.0 2.0 0.00 0.00 0.00 73 1017.8
20260906121603 77 1 1.0 2.0 0.00 0.00 0.00 73 1017.7
20260906121503 77 1 1.0 2.0 0.00 0.00 0.00 73 1017.7
20260906121404 77 1 1.0 1.0 0.00 0.00 0.00 73 1017.7
20260906121203 77 1 0.0 1.0 0.00 0.00 0.00 72 1017.7
20260906121003 77 1 0.0 1.0 0.00 0.00 0.00 72 1017.7
20260906120907 77 1 0.0 1.0 0.00 0.00 0.00 72 1017.7
20260906120806 77 1 0.0 1.0 0.00 0.00 0.00 72 1017.7
20260906120603 77 353 1.0 1.0 0.00 0.00 0.00 72 1017.7
20260906120404 77 341 1.0 1.0 0.00 0.00 0.00 72 1017.7
20260906120303 77 338 1.0 1.0 0.00 0.00 0.00 72 1017.7
20260906120203 77 333 1.0 1.0 0.00 0.00 0.00 72 1017.6
20260906120003 77 318 1.0 1.0 0.00 0.00 0.00 72 1017.7
20260906115904 77 314 0.0 1.0 0.00 0.00 0.00 72 1017.8
20260906115803 77 314 0.0 1.0 0.00 0.00 0.00 72 1017.6
20260906115703 77 314 0.0 1.0 0.00 0.00 0.00 72 1017.7
20260906115603 77 314 0.0 1.0 0.00 0.00 0.00 72 1017.7
20260906115503 77 314 0.0 1.0 0.00 0.00 0.00 72 1017.7
20260906115403 77 0 0.0 0.0 0.00 0.00 0.00 72 1017.7
20260906115306 77 0 0.0 0.0 0.00 0.00 0.00 72 1017.7
20260906115203 77 0 0.0 0.0 0.00 0.00 0.00 72 1017.6
20260906115103 77 0 0.0 0.0 0.00 0.00 0.00 71 1017.6
20260906115004 77 0 0.0 0.0 0.00 0.00 0.00 71 1017.7
20260906114903 77 0 0.0 0.0 0.00 0.00 0.00 71 1017.7
20260906114803 77 0 0.0 0.0 0.00 0.00 0.00 71 1017.7
20260906114703 77 0 0.0 0.0 0.00 0.00 0.00 71 1017.7
20260906114603 77 0 0.0 0.0 0.00 0.00 0.00 71 1017.7
20260906114503 77 0 0.0 0.0 0.00 0.00 0.00 71 1017.6
20260906114404 77 0 0.0 0.0 0.00 0.00 0.00 71 1017.7
20260906114304 77 0 0.0 0.0 0.00 0.00 0.00 71 1017.7
20260906114203 77 0 0.0 0.0 0.00 0.00 0.00 71 1017.7
20260906114103 78 0 0.0 0.0 0.00 0.00 0.00 71 1017.7
20260906114003 78 0 0.0 0.0 0.00 0.00 0.00 71 1017.7
20260906113903 78 0 0.0 0.0 0.00 0.00 0.00 71 1017.7
20260906113806 78 0 0.0 0.0 0.00 0.00 0.00 71 1017.7
20260906113703 78 0 0.0 0.0 0.00 0.00 0.00 71 1017.6
20260906113603 78 0 0.0 0.0 0.00 0.00 0.00 71 1017.7
20260906113503 78 0 0.0 0.0 0.00 0.00 0.00 71 1017.6
20260906113403 78 0 0.0 0.0 0.00 0.00 0.00 71 1017.6
20260906113304 78 0 0.0 0.0 0.00 0.00 0.00 71 1017.4
20260906113203 78 0 0.0 0.0 0.00 0.00 0.00 71 1017.6
20260906113104 78 0 0.0 0.0 0.00 0.00 0.00 71 1017.5
20260906112903 78 1 0.0 1.0 0.00 0.00 0.00 70 1017.5
20260906112803 78 1 0.0 1.0 0.00 0.00 0.00 70 1017.5
20260906112703 78 1 0.0 1.0 0.00 0.00 0.00 70 1017.6
20260906112604 78 1 0.0 1.0 0.00 0.00 0.00 70 1017.5
20260906112503 78 1 0.0 1.0 0.00 0.00 0.00 70 1017.6
20260906112403 78 1 0.0 1.0 0.00 0.00 0.00 70 1017.5
20260906112307 78 1 0.0 1.0 0.00 0.00 0.00 70 1017.6
20260906112204 78 1 0.0 2.0 0.00 0.00 0.00 70 1017.5
20260906112103 78 1 0.0 2.0 0.00 0.00 0.00 70 1017.5
20260906111903 78 1 0.0 2.0 0.00 0.00 0.00 70 1017.5
20260906111803 78 1 0.0 2.0 0.00 0.00 0.00 70 1017.6
20260906111604 78 1 0.0 2.0 0.00 0.00 0.00 70 1017.5
20260906111504 78 1 0.0 2.0 0.00 0.00 0.00 70 1017.5
20260906111404 78 1 0.0 2.0 0.00 0.00 0.00 70 1017.6
20260906111303 78 5 0.0 2.0 0.00 0.00 0.00 70 1017.6
20260906111203 78 7 2.0 2.0 0.00 0.00 0.00 70 1017.5
20260906111103 78 8 1.0 2.0 0.00 0.00 0.00 70 1017.5
20260906111004 78 9 1.0 2.0 0.00 0.00 0.00 70 1017.5
20260906110904 78 10 1.0 2.0 0.00 0.00 0.00 70 1017.4
20260906110806 78 10 1.0 2.0 0.00 0.00 0.00 70 1017.5
20260906110703 78 10 1.0 2.0 0.00 0.00 0.00 70 1017.5
20260906110603 78 10 1.0 2.0 0.00 0.00 0.00 70 1017.5
20260906110403 78 7 0.0 2.0 0.00 0.00 0.00 70 1017.5
20260906110303 78 3 1.0 2.0 0.00 0.00 0.00 70 1017.4
20260906110203 78 1 0.0 2.0 0.00 0.00 0.00 70 1017.4
20260906110104 78 1 0.0 2.0 0.00 0.00 0.00 70 1017.4
20260906110004 78 1 0.0 2.0 0.00 0.00 0.00 70 1017.4
20260906105903 78 1 1.0 2.0 0.00 0.00 0.00 70 1017.4
20260906105803 78 1 1.0 2.0 0.00 0.00 0.00 70 1017.5
20260906105603 78 1 1.0 2.0 0.00 0.00 0.00 70 1017.5
20260906105404 78 1 0.0 2.0 0.00 0.00 0.00 70 1017.4
20260906105306 78 1 0.0 2.0 0.00 0.00 0.00 70 1017.5
20260906105206 78 1 0.0 2.0 0.00 0.00 0.00 70 1017.4
20260906105103 78 1 0.0 2.0 0.00 0.00 0.00 70 1017.4
20260906105004 78 1 1.0 2.0 0.00 0.00 0.00 70 1017.5
20260906104903 79 1 1.0 2.0 0.00 0.00 0.00 70 1017.4
20260906104803 79 1 2.0 2.0 0.00 0.00 0.00 70 1017.4
20260906104703 79 1 1.0 2.0 0.00 0.00 0.00 70 1017.4
20260906104603 79 1 1.0 2.0 0.00 0.00 0.00 70 1017.4
20260906104504 79 1 1.0 2.0 0.00 0.00 0.00 70 1017.4
20260906104403 79 1 1.0 2.0 0.00 0.00 0.00 70 1017.4
20260906104303 79 1 1.0 2.0 0.00 0.00 0.00 70 1017.5
20260906104103 79 1 1.0 2.0 0.00 0.00 0.00 70 1017.4
20260906104003 79 1 1.0 2.0 0.00 0.00 0.00 70 1017.4
20260906103904 79 359 1.0 2.0 0.00 0.00 0.00 70 1017.5
20260906103804 78 356 2.0 2.0 0.00 0.00 0.00 70 1017.4
20260906103705 78 356 2.0 2.0 0.00 0.00 0.00 70 1017.4
20260906103604 78 355 1.0 2.0 0.00 0.00 0.00 70 1017.5
20260906103504 78 353 2.0 2.0 0.00 0.00 0.00 70 1017.5
20260906103403 78 351 1.0 2.0 0.00 0.00 0.00 70 1017.5
20260906103103 78 342 1.0 2.0 0.00 0.00 0.00 70 1017.3
20260906103003 78 333 2.0 2.0 0.00 0.00 0.00 70 1017.2
20260906102903 78 314 1.0 2.0 0.00 0.00 0.00 70 1017.4
20260906102803 78 314 0.0 1.0 0.00 0.00 0.00 70 1017.3
20260906102704 78 314 0.0 1.0 0.00 0.00 0.00 70 1017.2
20260906102603 78 314 0.0 1.0 0.00 0.00 0.00 70 1017.3
20260906102503 78 0 0.0 0.0 0.00 0.00 0.00 70 1017.3
20260906102403 78 0 0.0 0.0 0.00 0.00 0.00 70 1017.4
20260906102306 78 0 0.0 0.0 0.00 0.00 0.00 70 1017.3
20260906102103 78 0 0.0 0.0 0.00 0.00 0.00 70 1017.4
20260906102003 78 0 0.0 0.0 0.00 0.00 0.00 70 1017.3
20260906101903 78 0 0.0 0.0 0.00 0.00 0.00 70 1017.3
20260906101804 78 0 0.0 0.0 0.00 0.00 0.00 70 1017.4
20260906101704 78 0 0.0 0.0 0.00 0.00 0.00 70 1017.2
20260906101603 78 314 0.0 1.0 0.00 0.00 0.00 70 1017.3
20260906101503 78 314 0.0 1.0 0.00 0.00 0.00 70 1017.3
20260906101403 78 314 0.0 1.0 0.00 0.00 0.00 70 1017.1
20260906101303 78 314 0.0 1.0 0.00 0.00 0.00 70 1017.2
20260906101004 78 315 0.0 1.0 0.00 0.00 0.00 70 1017.2
20260906100903 78 315 0.0 1.0 0.00 0.00 0.00 70 1017.1
20260906100803 78 315 0.0 1.0 0.00 0.00 0.00 70 1017.3
20260906100604 78 314 0.0 2.0 0.00 0.00 0.00 70 1017.2
20260906100504 78 314 0.0 2.0 0.00 0.00 0.00 70 1017.2
20260906100303 78 314 0.0 2.0 0.00 0.00 0.00 70 1017.2
20260906100203 78 314 0.0 2.0 0.00 0.00 0.00 70 1017.2
20260906100103 78 314 0.0 2.0 0.00 0.00 0.00 70 1017.1
20260906100003 78 314 0.0 2.0 0.00 0.00 0.00 70 1017.0
20260906095904 78 314 0.0 2.0 0.00 0.00 0.00 70 1017.0
20260906095803 78 314 1.0 2.0 0.00 0.00 0.00 70 1017.2
20260906095703 78 314 1.0 2.0 0.00 0.00 0.00 70 1017.2
20260906095603 78 314 1.0 2.0 0.00 0.00 0.00 70 1017.2
20260906095503 78 314 1.0 2.0 0.00 0.00 0.00 70 1017.3
20260906095306 78 314 1.0 2.0 0.00 0.00 0.00 70 1017.1
20260906095103 78 0 0.0 0.0 0.00 0.00 0.00 70 1017.0
20260906095004 78 0 0.0 0.0 0.00 0.00 0.00 70 1017.1
20260906094903 78 0 0.0 0.0 0.00 0.00 0.00 70 1017.1
20260906094803 78 0 0.0 0.0 0.00 0.00 0.00 70 1017.0
20260906094703 78 0 0.0 0.0 0.00 0.00 0.00 70 1017.1
20260906094603 78 0 0.0 0.0 0.00 0.00 0.00 69 1017.1
20260906094503 78 0 0.0 0.0 0.00 0.00 0.00 69 1017.2
20260906094304 78 0 0.0 0.0 0.00 0.00 0.00 69 1017.1
20260906094103 78 0 0.0 0.0 0.00 0.00 0.00 69 1017.1
20260906093903 79 0 0.0 0.0 0.00 0.00 0.00 69 1017.1
20260906093803 79 0 0.0 0.0 0.00 0.00 0.00 69 1017.2
20260906093706 79 0 0.0 0.0 0.00 0.00 0.00 69 1017.1
20260906093603 79 0 0.0 0.0 0.00 0.00 0.00 69 1017.2
20260906093504 79 0 0.0 0.0 0.00 0.00 0.00 69 1017.1
20260906093404 79 0 0.0 0.0 0.00 0.00 0.00 69 1017.2
20260906093303 79 0 0.0 0.0 0.00 0.00 0.00 69 1017.0
20260906093203 79 0 0.0 0.0 0.00 0.00 0.00 69 1017.1
20260906093103 79 0 0.0 0.0 0.00 0.00 0.00 69 1017.1
20260906092903 79 0 0.0 0.0 0.00 0.00 0.00 68 1017.1
20260906092803 79 0 0.0 0.0 0.00 0.00 0.00 68 1017.0
20260906092704 79 0 0.0 0.0 0.00 0.00 0.00 68 1017.1
20260906092604 79 0 0.0 0.0 0.00 0.00 0.00 68 1017.1
20260906092503 79 0 0.0 0.0 0.00 0.00 0.00 68 1017.2
20260906092403 79 0 0.0 0.0 0.00 0.00 0.00 68 1017.0
20260906092306 79 0 0.0 0.0 0.00 0.00 0.00 68 1016.9
20260906092206 79 0 0.0 0.0 0.00 0.00 0.00 68 1017.0
20260906092103 79 45 0.0 1.0 0.00 0.00 0.00 68 1017.0
20260906092004 79 45 0.0 1.0 0.00 0.00 0.00 68 1017.1
20260906091903 79 45 0.0 1.0 0.00 0.00 0.00 68 1017.1
20260906091803 79 45 0.0 1.0 0.00 0.00 0.00 68 1016.9
20260906091703 79 45 0.0 1.0 0.00 0.00 0.00 68 1017.0
20260906091603 79 45 0.0 1.0 0.00 0.00 0.00 68 1017.0
20260906091503 79 45 0.0 1.0 0.00 0.00 0.00 68 1017.0
20260906091403 79 45 0.0 1.0 0.00 0.00 0.00 68 1017.0
20260906091304 79 45 0.0 1.0 0.00 0.00 0.00 68 1017.0
20260906091203 79 45 0.0 1.0 0.00 0.00 0.00 68 1016.9
20260906091103 79 45 0.0 1.0 0.00 0.00 0.00 68 1017.0
20260906090903 79 349 0.0 2.0 0.00 0.00 0.00 68 1017.1
20260906090803 79 330 0.0 2.0 0.00 0.00 0.00 68 1017.0
20260906090706 79 326 0.0 2.0 0.00 0.00 0.00 68 1017.0
20260906090603 79 326 0.0 2.0 0.00 0.00 0.00 68 1017.0
20260906090503 79 326 0.0 2.0 0.00 0.00 0.00 68 1017.0
20260906090404 79 323 0.0 2.0 0.00 0.00 0.00 68 1016.9
20260906090303 79 316 0.0 2.0 0.00 0.00 0.00 68 1017.1
20260906090203 79 314 0.0 2.0 0.00 0.00 0.00 68 1017.0
20260906090103 79 314 0.0 2.0 0.00 0.00 0.00 68 1017.0
20260906090003 79 314 0.0 2.0 0.00 0.00 0.00 68 1017.0
20260906085804 79 270 1.0 2.0 0.00 0.00 0.00 68 1017.0
20260906085704 79 203 0.0 1.0 0.00 0.00 0.00 68 1016.9
20260906085603 79 203 0.0 1.0 0.00 0.00 0.00 68 1016.9
20260906085503 79 203 0.0 1.0 0.00 0.00 0.00 68 1016.9
20260906085403 80 203 0.0 1.0 0.00 0.00 0.00 67 1016.9
20260906085306 80 203 0.0 2.0 0.00 0.00 0.00 67 1016.8
20260906085206 80 203 0.0 2.0 0.00 0.00 0.00 68 1016.8
20260906085103 80 203 0.0 2.0 0.00 0.00 0.00 68 1016.8
20260906085004 80 203 0.0 2.0 0.00 0.00 0.00 67 1016.9
20260906084904 80 196 0.0 2.0 0.00 0.00 0.00 67 1016.9
20260906084803 80 186 0.0 2.0 0.00 0.00 0.00 67 1016.8
20260906084703 80 179 0.0 2.0 0.00 0.00 0.00 67 1017.0
20260906084603 80 179 0.0 2.0 0.00 0.00 0.00 67 1016.8
20260906084503 80 179 0.0 2.0 0.00 0.00 0.00 67 1016.9
20260906084304 80 173 1.0 2.0 0.00 0.00 0.00 67 1016.9
20260906084204 80 167 1.0 2.0 0.00 0.00 0.00 67 1016.9
20260906084103 80 157 1.0 2.0 0.00 0.00 0.00 67 1016.8
20260906084003 80 141 1.0 2.0 0.00 0.00 0.00 67 1016.7
20260906083903 80 135 1.0 2.0 0.00 0.00 0.00 67 1016.8
20260906083803 80 135 1.0 2.0 0.00 0.00 0.00 67 1016.7
20260906083706 80 0 0.0 0.0 0.00 0.00 0.00 66 1016.7
20260906083603 80 0 0.0 0.0 0.00 0.00 0.00 66 1016.8
20260906083503 80 0 0.0 0.0 0.00 0.00 0.00 66 1016.7
20260906083403 80 0 0.0 0.0 0.00 0.00 0.00 66 1016.8
20260906083304 80 0 0.0 0.0 0.00 0.00 0.00 66 1016.7
20260906083204 80 0 0.0 0.0 0.00 0.00 0.00 66 1016.8
20260906083103 80 0 0.0 0.0 0.00 0.00 0.00 66 1016.8
20260906083003 80 0 0.0 0.0 0.00 0.00 0.00 66 1016.8
20260906082903 80 0 0.0 0.0 0.00 0.00 0.00 66 1016.7
20260906082803 80 0 0.0 0.0 0.00 0.00 0.00 66 1016.7
20260906082704 80 0 0.0 0.0 0.00 0.00 0.00 66 1016.7
20260906082604 80 0 0.0 0.0 0.00 0.00 0.00 66 1016.7
20260906082503 80 0 0.0 0.0 0.00 0.00 0.00 66 1016.7
20260906082403 80 0 0.0 0.0 0.00 0.00 0.00 66 1016.8
20260906082305 80 0 0.0 0.0 0.00 0.00 0.00 66 1016.7
20260906082206 80 0 0.0 0.0 0.00 0.00 0.00 66 1016.9
20260906082103 80 0 0.0 0.0 0.00 0.00 0.00 66 1016.7
20260906082003 80 0 0.0 0.0 0.00 0.00 0.00 66 1016.7
20260906081903 80 0 0.0 0.0 0.00 0.00 0.00 66 1016.8
20260906081804 80 0 0.0 0.0 0.00 0.00 0.00 66 1016.7
20260906081704 80 0 0.0 0.0 0.00 0.00 0.00 66 1016.7
20260906081503 80 0 0.0 0.0 0.00 0.00 0.00 66 1016.8
20260906081403 80 0 0.0 0.0 0.00 0.00 0.00 66 1016.8
20260906081303 80 0 0.0 0.0 0.00 0.00 0.00 65 1016.7
20260906081204 80 0 0.0 0.0 0.00 0.00 0.00 65 1016.8
20260906081004 80 0 0.0 0.0 0.00 0.00 0.00 65 1016.6
20260906080903 80 0 0.0 0.0 0.00 0.00 0.00 65 1016.6
20260906080803 81 0 0.0 0.0 0.00 0.00 0.00 65 1016.8
20260906080706 81 0 0.0 0.0 0.00 0.00 0.00 65 1016.8
20260906080603 81 0 0.0 0.0 0.00 0.00 0.00 65 1016.8
20260906080503 81 0 0.0 0.0 0.00 0.00 0.00 65 1016.9
20260906080403 81 0 0.0 0.0 0.00 0.00 0.00 65 1016.8
20260906080304 81 0 0.0 0.0 0.00 0.00 0.00 65 1016.8
20260906080204 81 0 0.0 0.0 0.00 0.00 0.00 65 1016.8
20260906080103 81 0 0.0 0.0 0.00 0.00 0.00 65 1016.7
20260906075903 81 0 0.0 0.0 0.00 0.00 0.00 65 1016.6
20260906075803 81 0 0.0 0.0 0.00 0.00 0.00 65 1016.8
20260906075704 81 0 0.0 0.0 0.00 0.00 0.00 65 1016.6
20260906075603 81 0 0.0 0.0 0.00 0.00 0.00 65 1016.6
20260906075503 81 0 0.0 0.0 0.00 0.00 0.00 65 1016.7
20260906075403 81 0 0.0 0.0 0.00 0.00 0.00 65 1016.7
20260906075206 81 0 0.0 0.0 0.00 0.00 0.00 65 1016.7
20260906075103 81 0 0.0 0.0 0.00 0.00 0.00 65 1016.7
20260906075003 81 0 0.0 0.0 0.00 0.00 0.00 65 1016.8
20260906074904 81 0 0.0 0.0 0.00 0.00 0.00 65 1016.6
20260906074804 81 0 0.0 0.0 0.00 0.00 0.00 64 1016.9
20260906074703 81 0 0.0 0.0 0.00 0.00 0.00 64 1016.6
20260906074603 81 0 0.0 0.0 0.00 0.00 0.00 64 1016.7
20260906074503 81 0 0.0 0.0 0.00 0.00 0.00 64 1016.7
20260906074403 81 0 0.0 0.0 0.00 0.00 0.00 64 1016.6
20260906074303 81 0 0.0 0.0 0.00 0.00 0.00 64 1016.7
20260906074204 81 0 0.0 0.0 0.00 0.00 0.00 64 1016.7
20260906074103 81 0 0.0 0.0 0.00 0.00 0.00 64 1016.7
20260906074003 81 0 0.0 0.0 0.00 0.00 0.00 64 1016.7
20260906073903 81 0 0.0 0.0 0.00 0.00 0.00 64 1016.9
20260906073803 81 0 0.0 0.0 0.00 0.00 0.00 64 1016.7
20260906073706 81 0 0.0 0.0 0.00 0.00 0.00 64 1016.6
20260906073603 81 0 0.0 0.0 0.00 0.00 0.00 64 1016.6
20260906073503 81 0 0.0 0.0 0.00 0.00 0.00 64 1016.7
20260906073304 81 0 0.0 0.0 0.00 0.00 0.00 64 1016.5
20260906073204 81 0 0.0 0.0 0.00 0.00 0.00 64 1016.6
20260906073103 81 0 0.0 0.0 0.00 0.00 0.00 64 1016.7
20260906072903 81 0 0.0 0.0 0.00 0.00 0.00 64 1016.7
20260906072804 81 0 0.0 0.0 0.00 0.00 0.00 64 1016.7
20260906072703 81 0 0.0 0.0 0.00 0.00 0.00 63 1016.7
20260906072603 81 0 0.0 0.0 0.00 0.00 0.00 63 1016.6
20260906072503 82 0 0.0 0.0 0.00 0.00 0.00 61 1016.7
20260906072403 82 0 0.0 0.0 0.00 0.00 0.00 61 1016.7
20260906072305 82 0 0.0 0.0 0.00 0.00 0.00 61 1016.7
20260906072206 82 0 0.0 0.0 0.00 0.00 0.00 61 1016.7
20260906072103 82 0 0.0 0.0 0.00 0.00 0.00 61 1016.8
20260906072003 82 0 0.0 0.0 0.00 0.00 0.00 60 1016.8
20260906071904 82 0 0.0 0.0 0.00 0.00 0.00 60 1016.6
20260906071803 82 0 0.0 0.0 0.00 0.00 0.00 60 1016.6
20260906071703 82 0 0.0 0.0 0.00 0.00 0.00 60 1016.6
20260906071603 82 0 0.0 0.0 0.00 0.00 0.00 60 1016.7
20260906071403 82 0 0.0 0.0 0.00 0.00 0.00 61 1016.7
20260906071303 82 0 0.0 0.0 0.00 0.00 0.00 61 1016.6
20260906071204 82 0 0.0 0.0 0.00 0.00 0.00 61 1016.7
20260906071003 82 0 0.0 0.0 0.00 0.00 0.00 61 1016.7
20260906070803 82 0 0.0 0.0 0.00 0.00 0.00 61 1016.7
20260906070706 82 0 0.0 0.0 0.00 0.00 0.00 61 1016.8
20260906070603 82 0 0.0 0.0 0.00 0.00 0.00 61 1016.7
20260906070503 82 0 0.0 0.0 0.00 0.00 0.00 61 1016.7
20260906070404 82 0 0.0 0.0 0.00 0.00 0.00 61 1016.7
20260906070303 82 0 0.0 0.0 0.00 0.00 0.00 61 1016.7
20260906070203 82 181 0.0 2.0 0.00 0.00 0.00 61 1016.7
20260906070103 82 181 0.0 2.0 0.00 0.00 0.00 61 1016.7
20260906065903 82 181 0.0 2.0 0.00 0.00 0.00 61 1016.8
20260906065804 82 181 0.0 2.0 0.00 0.00 0.00 61 1016.8
20260906065704 82 181 0.0 2.0 0.00 0.00 0.00 61 1016.9
20260906065603 82 181 0.0 2.0 0.00 0.00 0.00 61 1016.9
20260906065503 82 181 0.0 2.0 0.00 0.00 0.00 61 1016.8
20260906065403 82 181 0.0 2.0 0.00 0.00 0.00 61 1016.8
20260906065003 82 0 0.0 0.0 0.00 0.00 0.00 61 1016.8
20260906064903 82 0 0.0 0.0 0.00 0.00 0.00 61 1016.9
20260906064804 82 0 0.0 0.0 0.00 0.00 0.00 61 1016.8
20260906064704 82 0 0.0 0.0 0.00 0.00 0.00 61 1016.9
20260906064603 82 0 0.0 0.0 0.00 0.00 0.00 61 1016.9
20260906064503 82 0 0.0 0.0 0.00 0.00 0.00 61 1016.9
20260906064403 82 0 0.0 0.0 0.00 0.00 0.00 61 1016.9
20260906064303 82 0 0.0 0.0 0.00 0.00 0.00 61 1016.9
20260906064204 82 0 0.0 0.0 0.00 0.00 0.00 61 1017.0
20260906064104 82 0 0.0 0.0 0.00 0.00 0.00 61 1016.9
20260906063903 82 0 0.0 0.0 0.00 0.00 0.00 61 1016.8
20260906063803 82 0 0.0 0.0 0.00 0.00 0.00 61 1016.9
20260906063706 82 0 0.0 0.0 0.00 0.00 0.00 61 1016.8
20260906063603 82 0 0.0 0.0 0.00 0.00 0.00 61 1017.0
20260906063504 82 0 0.0 0.0 0.00 0.00 0.00 61 1016.9
20260906063404 82 0 0.0 0.0 0.00 0.00 0.00 61 1017.1
20260906063304 82 0 0.0 0.0 0.00 0.00 0.00 61 1016.9
20260906063203 82 0 0.0 0.0 0.00 0.00 0.00 61 1017.0
20260906063103 82 0 0.0 0.0 0.00 0.00 0.00 61 1017.0
20260906063003 82 0 0.0 0.0 0.00 0.00 0.00 61 1017.1
20260906062903 82 0 0.0 0.0 0.00 0.00 0.00 61 1017.0
20260906062704 82 0 0.0 0.0 0.00 0.00 0.00 61 1016.9
20260906062603 82 0 0.0 0.0 0.00 0.00 0.00 60 1017.0
20260906062503 82 0 0.0 0.0 0.00 0.00 0.00 60 1017.0
20260906062403 82 0 0.0 0.0 0.00 0.00 0.00 60 1017.0
20260906062306 82 0 0.0 0.0 0.00 0.00 0.00 60 1017.1
20260906062206 82 0 0.0 0.0 0.00 0.00 0.00 60 1017.1
20260906062103 82 0 0.0 0.0 0.00 0.00 0.00 60 1017.2
20260906062003 82 0 0.0 0.0 0.00 0.00 0.00 60 1016.9
20260906061803 82 0 0.0 0.0 0.00 0.00 0.00 60 1017.0
20260906061504 82 0 0.0 0.0 0.00 0.00 0.00 60 1017.0
20260906061203 82 0 0.0 0.0 0.00 0.00 0.00 60 1017.0
20260906061103 83 0 0.0 0.0 0.00 0.00 0.00 60 1017.0
20260906061003 83 0 0.0 0.0 0.00 0.00 0.00 60 1017.1
20260906060904 83 0 0.0 0.0 0.00 0.00 0.00 60 1017.1
20260906060804 83 0 0.0 0.0 0.00 0.00 0.00 60 1017.0
20260906060706 83 0 0.0 0.0 0.00 0.00 0.00 60 1017.1
20260906060604 83 0 0.0 0.0 0.00 0.00 0.00 60 1017.0
20260906060504 83 0 0.0 0.0 0.00 0.00 0.00 60 1016.9
20260906060403 83 0 0.0 0.0 0.00 0.00 0.00 60 1017.1
20260906060303 83 0 0.0 0.0 0.00 0.00 0.00 60 1017.0
20260906060203 83 0 0.0 0.0 0.00 0.00 0.00 60 1017.0
20260906060104 83 0 0.0 0.0 0.00 0.00 0.00 60 1017.0
20260906060002 83 0 0.0 0.0 0.00 0.00 0.00 60 1017.1
20260906055801 83 0 0.0 0.0 0.00 0.00 0.00 60 1017.1
20260906055701 83 0 0.0 0.0 0.00 0.00 0.00 60 1017.1
20260906055601 83 0 0.0 0.0 0.00 0.00 0.00 60 1017.1
20260906055401 83 0 0.0 0.0 0.00 0.00 0.00 60 1017.1
20260906055201 83 0 0.0 0.0 0.00 0.00 0.00 60 1017.1
20260906055101 83 0 0.0 0.0 0.00 0.00 0.00 60 1017.1
20260906055001 83 0 0.0 0.0 0.00 0.00 0.00 60 1017.1
20260906054904 83 0 0.0 0.0 0.00 0.00 0.00 60 1017.1
20260906054802 83 0 0.0 0.0 0.00 0.00 0.00 60 1017.1
20260906054701 83 0 0.0 0.0 0.00 0.00 0.00 60 1017.2
20260906054601 83 0 0.0 0.0 0.00 0.00 0.00 59 1017.1
20260906054502 83 0 0.0 0.0 0.00 0.00 0.00 59 1017.1
20260906054401 83 0 0.0 0.0 0.00 0.00 0.00 59 1017.2
20260906054301 83 0 0.0 0.0 0.00 0.00 0.00 59 1017.2
20260906054201 83 0 0.0 0.0 0.00 0.00 0.00 60 1017.3
20260906054001 83 0 0.0 0.0 0.00 0.00 0.00 60 1017.3
20260906053902 83 0 0.0 0.0 0.00 0.00 0.00 60 1017.1
20260906053701 83 0 0.0 0.0 0.00 0.00 0.00 60 1017.3
20260906053601 83 0 0.0 0.0 0.00 0.00 0.00 60 1017.2
20260906053501 83 0 0.0 0.0 0.00 0.00 0.00 60 1017.2
20260906053404 83 0 0.0 0.0 0.00 0.00 0.00 60 1017.2
20260906053301 83 0 0.0 0.0 0.00 0.00 0.00 60 1017.3
20260906053201 83 0 0.0 0.0 0.00 0.00 0.00 60 1017.3
20260906053101 83 0 0.0 0.0 0.00 0.00 0.00 60 1017.2
20260906053002 83 0 0.0 0.0 0.00 0.00 0.00 60 1017.2
20260906052901 83 0 0.0 0.0 0.00 0.00 0.00 60 1017.2
20260906052801 83 0 0.0 0.0 0.00 0.00 0.00 60 1017.3
20260906052701 83 0 0.0 0.0 0.00 0.00 0.00 60 1017.2
20260906052601 83 0 0.0 0.0 0.00 0.00 0.00 60 1017.2
20260906052501 83 0 0.0 0.0 0.00 0.00 0.00 60 1017.3
20260906052402 83 0 0.0 0.0 0.00 0.00 0.00 60 1017.2
20260906052201 83 0 0.0 0.0 0.00 0.00 0.00 60 1017.3
20260906052101 83 0 0.0 0.0 0.00 0.00 0.00 60 1017.1
20260906052001 83 0 0.0 0.0 0.00 0.00 0.00 60 1017.2
20260906051801 83 0 0.0 0.0 0.00 0.00 0.00 60 1017.2
20260906051601 83 0 0.0 0.0 0.00 0.00 0.00 60 1017.3
20260906051501 83 0 0.0 0.0 0.00 0.00 0.00 60 1017.3
20260906051402 83 0 0.0 0.0 0.00 0.00 0.00 60 1017.2
20260906051302 83 0 0.0 0.0 0.00 0.00 0.00 60 1017.2
20260906051201 83 0 0.0 0.0 0.00 0.00 0.00 60 1017.2
20260906051001 83 0 0.0 0.0 0.00 0.00 0.00 60 1017.2
20260906050901 83 0 0.0 0.0 0.00 0.00 0.00 60 1017.2
20260906050801 83 0 0.0 0.0 0.00 0.00 0.00 60 1017.2
20260906050701 83 0 0.0 0.0 0.00 0.00 0.00 60 1017.2
20260906050501 83 0 0.0 0.0 0.00 0.00 0.00 60 1017.2
20260906050404 83 0 0.0 0.0 0.00 0.00 0.00 60 1017.2
20260906050301 83 0 0.0 0.0 0.00 0.00 0.00 60 1017.0
20260906050101 83 0 0.0 0.0 0.00 0.00 0.00 60 1017.1
20260906050002 83 0 0.0 0.0 0.00 0.00 0.00 60 1017.3
20260906045801 84 0 0.0 0.0 0.00 0.00 0.00 60 1017.1
20260906045601 84 0 0.0 0.0 0.00 0.00 0.00 60 1017.2
20260906045501 84 0 0.0 0.0 0.00 0.00 0.00 60 1017.3
20260906045402 84 0 0.0 0.0 0.00 0.00 0.00 60 1017.1
20260906045305 84 0 0.0 0.0 0.00 0.00 0.00 60 1017.2
20260906045201 84 0 0.0 0.0 0.00 0.00 0.00 60 1017.2
20260906045101 84 0 0.0 0.0 0.00 0.00 0.00 60 1017.2
20260906044904 84 0 0.0 0.0 0.00 0.00 0.00 60 1017.2
20260906044801 84 0 0.0 0.0 0.00 0.00 0.00 60 1017.2
20260906044701 84 0 0.0 0.0 0.00 0.00 0.00 60 1017.2
20260906044601 84 0 0.0 0.0 0.00 0.00 0.00 60 1017.2
20260906044402 84 0 0.0 0.0 0.00 0.00 0.00 60 1017.3
20260906044201 84 0 0.0 0.0 0.00 0.00 0.00 60 1017.2
20260906044101 84 0 0.0 0.0 0.00 0.00 0.00 60 1017.2
20260906044001 84 0 0.0 0.0 0.00 0.00 0.00 60 1017.1
20260906043801 84 0 0.0 0.0 0.00 0.00 0.00 60 1017.2
20260906043602 84 0 0.0 0.0 0.00 0.00 0.00 60 1017.3
20260906043501 84 0 0.0 0.0 0.00 0.00 0.00 60 1017.2
20260906043403 84 0 0.0 0.0 0.00 0.00 0.00 60 1017.3
20260906043302 84 0 0.0 0.0 0.00 0.00 0.00 60 1017.3
20260906043101 84 0 0.0 0.0 0.00 0.00 0.00 60 1017.3
20260906043001 84 0 0.0 0.0 0.00 0.00 0.00 60 1017.2
20260906042901 84 0 0.0 0.0 0.00 0.00 0.00 60 1017.2
20260906042801 84 0 0.0 0.0 0.00 0.00 0.00 60 1017.1
20260906042702 84 0 0.0 0.0 0.00 0.00 0.00 60 1017.1
20260906042601 84 0 0.0 0.0 0.00 0.00 0.00 60 1017.1
20260906042501 84 0 0.0 0.0 0.00 0.00 0.00 59 1017.1
20260906042401 84 0 0.0 0.0 0.00 0.00 0.00 59 1017.1
20260906042301 84 0 0.0 0.0 0.00 0.00 0.00 59 1017.2
20260906042201 84 0 0.0 0.0 0.00 0.00 0.00 59 1017.2
20260906042101 84 0 0.0 0.0 0.00 0.00 0.00 59 1017.2
20260906042002 84 0 0.0 0.0 0.00 0.00 0.00 59 1017.1
20260906041905 84 0 0.0 0.0 0.00 0.00 0.00 59 1017.0
20260906041801 84 0 0.0 0.0 0.00 0.00 0.00 59 1016.9
20260906041701 84 0 0.0 0.0 0.00 0.00 0.00 59 1017.0
20260906041601 84 0 0.0 0.0 0.00 0.00 0.00 59 1017.0
20260906041501 84 0 0.0 0.0 0.00 0.00 0.00 59 1017.0
20260906041402 84 0 0.0 0.0 0.00 0.00 0.00 59 1017.0
20260906041301 84 0 0.0 0.0 0.00 0.00 0.00 59 1017.1
20260906041201 84 0 0.0 0.0 0.00 0.00 0.00 60 1017.0
20260906041101 84 0 0.0 0.0 0.00 0.00 0.00 60 1017.0
20260906041001 84 0 0.0 0.0 0.00 0.00 0.00 60 1017.0
20260906040901 84 0 0.0 0.0 0.00 0.00 0.00 60 1016.9
20260906040802 85 0 0.0 0.0 0.00 0.00 0.00 60 1017.0
20260906040701 85 0 0.0 0.0 0.00 0.00 0.00 60 1017.1
20260906040601 85 0 0.0 0.0 0.00 0.00 0.00 60 1017.1
20260906040501 85 0 0.0 0.0 0.00 0.00 0.00 60 1017.0
20260906040404 85 0 0.0 0.0 0.00 0.00 0.00 60 1017.1
20260906040301 85 0 0.0 0.0 0.00 0.00 0.00 60 1017.0
20260906040201 85 0 0.0 0.0 0.00 0.00 0.00 60 1017.0
20260906040001 85 0 0.0 0.0 0.00 0.00 0.00 60 1017.0
20260906035901 85 0 0.0 0.0 0.00 0.00 0.00 60 1017.0
20260906035801 85 0 0.0 0.0 0.00 0.00 0.00 59 1017.0
20260906035701 85 0 0.0 0.0 0.00 0.00 0.00 59 1016.9
20260906035601 85 0 0.0 0.0 0.00 0.00 0.00 59 1017.0
20260906035501 85 0 0.0 0.0 0.00 0.00 0.00 59 1016.9
20260906035402 85 0 0.0 0.0 0.00 0.00 0.00 59 1016.9
20260906035305 85 0 0.0 0.0 0.00 0.00 0.00 59 1017.0
20260906035201 85 0 0.0 0.0 0.00 0.00 0.00 59 1016.9
20260906034904 85 0 0.0 0.0 0.00 0.00 0.00 59 1016.8
20260906034801 85 0 0.0 0.0 0.00 0.00 0.00 59 1016.8
20260906034401 85 0 0.0 0.0 0.00 0.00 0.00 58 1016.8
20260906034201 85 0 0.0 0.0 0.00 0.00 0.00 58 1016.9
20260906034001 85 0 0.0 0.0 0.00 0.00 0.00 58 1016.8
20260906033902 85 0 0.0 0.0 0.00 0.00 0.00 58 1016.9
20260906033801 85 0 0.0 0.0 0.00 0.00 0.00 58 1016.8
20260906033701 85 0 0.0 0.0 0.00 0.00 0.00 58 1016.7
20260906033501 85 0 0.0 0.0 0.00 0.00 0.00 58 1016.7
20260906033301 85 0 0.0 0.0 0.00 0.00 0.00 58 1016.7
20260906033201 86 0 0.0 0.0 0.00 0.00 0.00 58 1016.7
20260906033001 86 0 0.0 0.0 0.00 0.00 0.00 58 1016.8
20260906032902 86 0 0.0 0.0 0.00 0.00 0.00 58 1016.6
20260906032801 86 0 0.0 0.0 0.00 0.00 0.00 58 1016.6
20260906032701 86 0 0.0 0.0 0.00 0.00 0.00 58 1016.7
20260906032601 86 0 0.0 0.0 0.00 0.00 0.00 58 1016.8
20260906032501 86 0 0.0 0.0 0.00 0.00 0.00 58 1016.8
20260906032401 86 0 0.0 0.0 0.00 0.00 0.00 57 1016.6
20260906032305 86 0 0.0 0.0 0.00 0.00 0.00 57 1016.7
20260906032201 86 0 0.0 0.0 0.00 0.00 0.00 57 1016.7
20260906032001 86 0 0.0 0.0 0.00 0.00 0.00 57 1016.6
20260906031904 86 0 0.0 0.0 0.00 0.00 0.00 57 1016.7
20260906031801 86 0 0.0 0.0 0.00 0.00 0.00 57 1016.7
20260906031701 86 0 0.0 0.0 0.00 0.00 0.00 57 1016.6
20260906031601 86 0 0.0 0.0 0.00 0.00 0.00 57 1016.7
20260906031401 86 0 0.0 0.0 0.00 0.00 0.00 57 1016.8
20260906031301 86 0 0.0 0.0 0.00 0.00 0.00 57 1016.6
20260906031201 86 0 0.0 0.0 0.00 0.00 0.00 56 1016.7
20260906031101 86 0 0.0 0.0 0.00 0.00 0.00 56 1016.6
20260906031001 86 0 0.0 0.0 0.00 0.00 0.00 56 1016.7
20260906030901 86 0 0.0 0.0 0.00 0.00 0.00 56 1016.7
20260906030802 86 0 0.0 0.0 0.00 0.00 0.00 56 1016.5
20260906030701 86 0 0.0 0.0 0.00 0.00 0.00 56 1016.6
20260906030501 86 0 0.0 0.0 0.00 0.00 0.00 56 1016.6
20260906030404 86 0 0.0 0.0 0.00 0.00 0.00 56 1016.5
20260906030301 86 0 0.0 0.0 0.00 0.00 0.00 56 1016.5
20260906030201 86 0 0.0 0.0 0.00 0.00 0.00 56 1016.5
20260906030101 86 0 0.0 0.0 0.00 0.00 0.00 56 1016.3
20260906030001 86 0 0.0 0.0 0.00 0.00 0.00 56 1016.6
20260906025801 86 0 0.0 0.0 0.00 0.00 0.00 56 1016.6
20260906025701 86 0 0.0 0.0 0.00 0.00 0.00 56 1016.4
20260906025501 87 0 0.0 0.0 0.00 0.00 0.00 56 1016.4
20260906025306 87 0 0.0 0.0 0.00 0.00 0.00 56 1016.4
20260906025201 87 0 0.0 0.0 0.00 0.00 0.00 56 1016.4
20260906025101 87 0 0.0 0.0 0.00 0.00 0.00 56 1016.2
20260906025001 87 0 0.0 0.0 0.00 0.00 0.00 55 1016.3
20260906024904 87 0 0.0 0.0 0.00 0.00 0.00 55 1016.4
20260906024801 87 0 0.0 0.0 0.00 0.00 0.00 55 1016.3
20260906024701 87 0 0.0 0.0 0.00 0.00 0.00 55 1016.2
20260906024602 87 0 0.0 0.0 0.00 0.00 0.00 55 1016.2
20260906024501 87 0 0.0 0.0 0.00 0.00 0.00 55 1016.2
20260906024401 87 0 0.0 0.0 0.00 0.00 0.00 55 1016.2
20260906024301 87 0 0.0 0.0 0.00 0.00 0.00 55 1016.3
20260906024201 87 1 0.0 2.0 0.00 0.00 0.00 55 1016.2
20260906024102 87 1 0.0 2.0 0.00 0.00 0.00 55 1016.2
20260906024001 87 1 0.0 2.0 0.00 0.00 0.00 55 1016.2
20260906023901 87 1 0.0 2.0 0.00 0.00 0.00 55 1016.2
20260906023801 87 1 0.0 2.0 0.00 0.00 0.00 55 1016.2
20260906023701 87 1 0.0 2.0 0.00 0.00 0.00 55 1016.3
20260906023601 87 1 0.0 2.0 0.00 0.00 0.00 55 1016.2
20260906023502 87 1 0.0 2.0 0.00 0.00 0.00 55 1016.2
20260906023404 88 1 0.0 2.0 0.00 0.00 0.00 55 1016.2
20260906023301 88 1 0.0 2.0 0.00 0.00 0.00 55 1016.1
20260906023201 88 1 1.0 2.0 0.00 0.00 0.00 55 1016.2
20260906023101 88 1 1.0 2.0 0.00 0.00 0.00 55 1016.2
20260906023001 88 1 1.0 2.0 0.00 0.00 0.00 55 1015.9
20260906022901 88 1 0.0 2.0 0.00 0.00 0.00 54 1016.0
20260906022701 88 1 0.0 2.0 0.00 0.00 0.00 54 1016.0
20260906022601 88 1 0.0 2.0 0.00 0.00 0.00 54 1016.1
20260906022501 88 1 1.0 2.0 0.00 0.00 0.00 54 1016.0
20260906022401 88 1 1.0 2.0 0.00 0.00 0.00 54 1016.0
20260906022301 88 1 1.0 2.0 0.00 0.00 0.00 54 1016.0
20260906022202 88 1 0.0 1.0 0.00 0.00 0.00 54 1016.1
20260906022101 88 1 0.0 1.0 0.00 0.00 0.00 54 1016.0
20260906022001 88 1 0.0 1.0 0.00 0.00 0.00 54 1016.0
20260906021904 88 1 0.0 2.0 0.00 0.00 0.00 54 1015.9
20260906021801 88 1 0.0 2.0 0.00 0.00 0.00 54 1015.9
20260906021601 88 1 0.0 2.0 0.00 0.00 0.00 53 1016.0
20260906021502 88 1 0.0 2.0 0.00 0.00 0.00 53 1015.9
20260906021402 88 1 0.0 2.0 0.00 0.00 0.00 53 1015.9
20260906021301 88 1 0.0 2.0 0.00 0.00 0.00 53 1015.8
20260906021101 89 1 0.0 2.0 0.00 0.00 0.00 53 1016.0
20260906021001 89 1 1.0 2.0 0.00 0.00 0.00 53 1015.8
20260906020902 89 1 1.0 2.0 0.00 0.00 0.00 53 1015.8
20260906020801 89 1 0.0 2.0 0.00 0.00 0.00 53 1015.9
20260906020701 89 1 1.0 2.0 0.00 0.00 0.00 53 1015.7
20260906020601 89 1 1.0 2.0 0.00 0.00 0.00 53 1015.7
20260906020404 89 1 1.0 2.0 0.00 0.00 0.00 53 1015.7
20260906020301 89 1 1.0 2.0 0.00 0.00 0.00 53 1015.7
20260906020001 89 1 1.0 2.0 0.00 0.00 0.00 53 1015.8
20260906015901 89 356 2.0 2.0 0.00 0.00 0.00 53 1015.7
20260906015801 89 355 1.0 2.0 0.00 0.00 0.00 53 1015.7
20260906015702 89 355 2.0 2.0 0.00 0.00 0.00 53 1015.7
20260906015602 89 355 2.0 2.0 0.00 0.00 0.00 53 1015.7
20260906015501 89 354 2.0 2.0 0.00 0.00 0.00 53 1015.7
20260906015305 89 353 2.0 2.0 0.00 0.00 0.00 54 1015.6
20260906015201 89 351 2.0 2.0 0.00 0.00 0.00 54 1015.7
20260906015101 89 350 2.0 2.0 0.00 0.00 0.00 54 1015.7
20260906015002 89 347 1.0 2.0 0.00 0.00 0.00 54 1015.7
20260906014903 89 354 1.0 2.0 0.00 0.00 0.00 54 1015.6
20260906014702 89 1 2.0 2.0 0.00 0.00 0.00 54 1015.7
20260906014602 89 0 0.0 0.0 0.00 0.00 0.00 54 1015.5
20260906014501 89 1 0.0 2.0 0.00 0.00 0.00 54 1015.5
20260906014401 89 1 0.0 2.0 0.00 0.00 0.00 54 1015.5
20260906014201 89 1 0.0 2.0 0.00 0.00 0.00 53 1015.5
20260906014102 89 1 0.0 2.0 0.00 0.00 0.00 53 1015.4
20260906014001 89 1 0.0 2.0 0.00 0.00 0.00 53 1015.6
20260906013801 89 1 0.0 2.0 0.00 0.00 0.00 53 1015.6
20260906013701 89 1 0.0 2.0 0.00 0.00 0.00 53 1015.6
20260906013601 89 1 0.0 2.0 0.00 0.00 0.00 53 1015.5
20260906013502 89 1 1.0 2.0 0.00 0.00 0.00 53 1015.6
20260906013403 89 1 1.0 2.0 0.00 0.00 0.00 53 1015.5
20260906013302 89 1 1.0 2.0 0.00 0.00 0.00 53 1015.4
20260906013102 89 358 1.0 2.0 0.00 0.00 0.00 53 1015.4
20260906013001 89 355 1.0 2.0 0.00 0.00 0.00 53 1015.5
20260906012901 89 353 1.0 2.0 0.00 0.00 0.00 53 1015.5
20260906012801 89 350 1.0 2.0 0.00 0.00 0.00 53 1015.4
20260906012602 89 342 1.0 2.0 0.00 0.00 0.00 53 1015.2
20260906012502 89 338 1.0 2.0 0.00 0.00 0.00 53 1015.4
20260906012401 89 331 1.0 2.0 0.00 0.00 0.00 53 1015.3
20260906012301 89 318 1.0 2.0 0.00 0.00 0.00 53 1015.3
20260906012101 89 314 0.0 1.0 0.00 0.00 0.00 53 1015.3
20260906012002 89 314 1.0 1.0 0.00 0.00 0.00 53 1015.3
20260906011903 89 314 0.0 2.0 0.00 0.00 0.00 53 1015.2
20260906011801 89 320 0.0 2.0 0.00 0.00 0.00 53 1015.2
20260906011702 89 336 0.0 2.0 0.00 0.00 0.00 53 1015.3
20260906011501 90 341 0.0 2.0 0.00 0.00 0.00 53 1015.3
20260906011401 90 343 0.0 2.0 0.00 0.00 0.00 53 1015.3
20260906011301 90 343 0.0 2.0 0.00 0.00 0.00 53 1015.3
20260906011102 90 343 0.0 2.0 0.00 0.00 0.00 53 1015.3
20260906011001 90 344 1.0 2.0 0.00 0.00 0.00 52 1015.2
20260906010901 90 352 1.0 2.0 0.00 0.00 0.00 53 1015.3
20260906010801 90 1 1.0 2.0 0.00 0.00 0.00 52 1015.2
20260906010701 90 1 1.0 2.0 0.00 0.00 0.00 52 1015.3
20260906010601 90 1 0.0 2.0 0.00 0.00 0.00 52 1015.3
20260906010502 90 1 0.0 2.0 0.00 0.00 0.00 52 1015.2
20260906010403 90 1 0.0 2.0 0.00 0.00 0.00 52 1015.2
20260906010201 90 1 0.0 2.0 0.00 0.00 0.00 52 1015.3
20260906005901 90 1 0.0 2.0 0.00 0.00 0.00 52 1015.3
20260906005801 90 1 1.0 2.0 0.00 0.00 0.00 52 1015.2
20260906005702 90 1 0.0 2.0 0.00 0.00 0.00 52 1015.2
20260906005602 90 1 0.0 2.0 0.00 0.00 0.00 52 1015.1
20260906005501 90 1 1.0 2.0 0.00 0.00 0.00 49 1015.1
20260906005401 90 1 1.0 2.0 0.00 0.00 0.00 49 1015.3
20260906005301 90 1 0.0 1.0 0.00 0.00 0.00 49 1015.3
20260906005101 91 1 0.0 1.0 0.00 0.00 0.00 48 1015.3
20260906005002 91 1 0.0 1.0 0.00 0.00 0.00 48 1015.3
20260906004902 91 1 0.0 1.0 0.00 0.00 0.00 48 1015.3
20260906004801 91 1 0.0 1.0 0.00 0.00 0.00 48 1015.3
20260906004701 91 1 0.0 2.0 0.00 0.00 0.00 48 1015.4
20260906004601 91 1 0.0 2.0 0.00 0.00 0.00 48 1015.3
20260906004501 91 1 0.0 2.0 0.00 0.00 0.00 48 1015.1
20260906004402 91 1 0.0 2.0 0.00 0.00 0.00 48 1015.2
20260906004201 91 1 0.0 2.0 0.00 0.00 0.00 48 1015.1
20260906004101 91 1 0.0 2.0 0.00 0.00 0.00 47 1015.2
20260906003901 91 21 0.0 2.0 0.00 0.00 0.00 47 1015.2
20260906003802 91 29 0.0 2.0 0.00 0.00 0.00 47 1015.2
20260906003702 91 36 1.0 2.0 0.00 0.00 0.00 47 1015.1
20260906003601 92 40 0.0 2.0 0.00 0.00 0.00 46 1015.2
20260906003501 92 34 0.0 2.0 0.00 0.00 0.00 46 1015.2
20260906003301 92 22 0.0 2.0 0.00 0.00 0.00 46 1015.1
20260906003201 92 22 0.0 2.0 0.00 0.00 0.00 46 1015.1
20260906003001 92 22 1.0 2.0 0.00 0.00 0.00 46 1015.1
20260906002901 92 16 1.0 2.0 0.00 0.00 0.00 46 1015.1
20260906002701 92 1 0.0 2.0 0.00 0.00 0.00 46 1015.2
20260906002601 92 1 0.0 2.0 0.00 0.00 0.00 46 1015.1
20260906002502 92 1 1.0 2.0 0.00 0.00 0.00 46 1015.2
20260906002401 92 1 2.0 2.0 0.00 0.00 0.00 46 1015.2
20260906002301 92 1 0.0 2.0 0.00 0.00 0.00 46 1015.2
20260906002201 92 356 0.0 2.0 0.00 0.00 0.00 45 1015.1
20260906002101 92 352 0.0 2.0 0.00 0.00 0.00 45 1015.2
20260906002002 92 354 0.0 2.0 0.00 0.00 0.00 45 1015.2
20260906001801 93 355 0.0 2.0 0.00 0.00 0.00 45 1015.2
20260906001701 93 356 0.0 2.0 0.00 0.00 0.00 45 1015.2
20260906001601 93 351 1.0 2.0 0.00 0.00 0.00 45 1015.2
20260906001502 93 345 1.0 2.0 0.00 0.00 0.00 45 1015.2
20260906001401 93 340 0.0 2.0 0.00 0.00 0.00 45 1015.1
20260906001201 93 332 0.0 2.0 0.00 0.00 0.00 45 1015.3
20260906001101 93 330 1.0 2.0 0.00 0.00 0.00 44 1015.2
20260906001001 93 325 1.0 2.0 0.00 0.00 0.00 44 1015.1
20260906000901 93 321 1.0 2.0 0.00 0.00 0.00 44 1015.2
20260906000802 93 322 1.0 2.0 0.00 0.00 0.00 44 1015.1
20260906000701 93 323 1.0 2.0 0.00 0.00 0.00 44 1015.1
20260906000601 93 326 2.0 2.0 0.00 0.00 0.00 43 1015.1
20260906000403 93 334 2.0 2.0 0.00 0.00 0.00 43 1015.2
20260906000303 93 336 2.0 2.0 0.00 0.00 0.00 43 1015.1
20260906000204 93 341 2.0 2.0 0.00 0.00 0.00 43 1015.2
20260906000001 93 344 2.0 2.0 0.00 0.00 0.00 43 1015.2
20260905235901 94 350 2.0 2.0 0.00 0.00 0.00 43 1015.2
20260905235801 94 349 1.0 2.0 0.00 0.00 0.00 43 1015.1
20260905235701 94 346 1.0 2.0 0.00 0.00 0.00 43 1015.1
20260905235602 94 347 2.0 2.0 0.00 0.00 0.00 43 1015.3
20260905235501 94 346 2.0 2.0 0.00 0.00 0.00 43 1015.2
20260905235401 94 341 1.0 2.0 0.00 0.00 0.00 43 1015.2
20260905235301 94 344 2.0 2.0 0.00 0.00 0.00 43 1015.2
20260905235201 94 332 2.0 2.0 0.00 0.00 0.00 43 1015.2
20260905235102 94 336 0.0 2.0 0.00 0.00 0.00 43 1015.2
20260905235001 94 351 0.0 2.0 0.00 0.00 0.00 43 1015.1
20260905234901 94 357 1.0 2.0 0.00 0.00 0.00 43 1015.1
20260905234804 94 2 2.0 2.0 0.00 0.00 0.00 43 1015.1
20260905234601 94 6 1.0 2.0 0.00 0.00 0.00 43 1015.1
20260905234501 94 7 1.0 2.0 0.00 0.00 0.00 43 1015.2
20260905234402 94 12 0.0 2.0 0.00 0.00 0.00 42 1015.1
20260905234301 94 10 0.0 2.0 0.00 0.00 0.00 42 1015.0
20260905234201 94 13 0.0 2.0 0.00 0.00 0.00 42 1015.1
20260905234101 94 13 0.0 2.0 0.00 0.00 0.00 42 1015.1
20260905234001 94 9 1.0 2.0 0.00 0.00 0.00 42 1015.0
20260905233901 95 357 1.0 2.0 0.00 0.00 0.00 42 1015.1
20260905233802 95 351 1.0 2.0 0.00 0.00 0.00 43 1015.0
20260905233701 95 351 1.0 2.0 0.00 0.00 0.00 43 1015.1
20260905233501 95 354 2.0 2.0 0.00 0.00 0.00 42 1015.0
20260905233401 95 349 0.0 2.0 0.00 0.00 0.00 42 1015.0
20260905233001 95 348 0.0 2.0 0.00 0.00 0.00 42 1015.1
20260905232901 95 349 2.0 2.0 0.00 0.00 0.00 42 1015.0
20260905232802 95 353 1.0 3.0 0.00 0.00 0.00 42 1014.9
20260905232702 95 345 1.0 3.0 0.00 0.00 0.00 41 1015.0
20260905232601 95 324 0.0 3.0 0.00 0.00 0.00 41 1015.0
20260905232501 95 309 0.0 3.0 0.00 0.00 0.00 41 1015.0
20260905232401 95 291 0.0 3.0 0.00 0.00 0.00 41 1015.1
20260905232305 95 259 0.0 3.0 0.00 0.00 0.00 41 1015.0
20260905232201 95 237 2.0 3.0 0.00 0.00 0.00 41 1015.0
20260905232101 96 225 2.0 3.0 0.00 0.00 0.00 41 1015.1
20260905232001 96 221 1.0 3.0 0.00 0.00 0.00 41 1015.0
20260905231901 96 213 2.0 3.0 0.00 0.00 0.00 40 1015.0
20260905231601 96 227 2.0 3.0 0.00 0.00 0.00 40 1014.9
20260905231502 96 252 3.0 3.0 0.00 0.00 0.00 39 1015.0
20260905231301 96 316 1.0 2.0 0.00 0.00 0.00 35 1014.9
20260905231201 96 323 0.0 2.0 0.00 0.00 0.00 34 1015.0
20260905231101 96 324 0.0 2.0 0.00 0.00 0.00 33 1015.0
20260905231001 96 332 0.0 2.0 0.00 0.00 0.00 33 1015.1
20260905230901 96 94 1.0 3.0 0.00 0.00 0.00 33 1015.0
20260905230802 96 106 1.0 3.0 0.00 0.00 0.00 33 1015.1
20260905230701 96 108 1.0 3.0 0.00 0.00 0.00 33 1015.1
20260905230501 96 113 0.0 3.0 0.00 0.00 0.00 33 1015.0
20260905230401 96 115 0.0 3.0 0.00 0.00 0.00 33 1015.1
20260905230304 97 119 0.0 3.0 0.00 0.00 0.00 33 1015.0
20260905230201 97 124 0.0 3.0 0.00 0.00 0.00 33 1015.0
20260905230001 97 143 1.0 3.0 0.00 0.00 0.00 33 1015.0
20260905225902 97 151 2.0 3.0 0.00 0.00 0.00 33 1014.9
20260905225801 97 154 1.0 3.0 0.00 0.00 0.00 33 1014.9
20260905225701 97 156 0.0 3.0 0.00 0.00 0.00 33 1015.1
20260905225601 97 146 0.0 4.0 0.00 0.00 0.00 33 1014.9
20260905225501 97 137 0.0 4.0 0.00 0.00 0.00 32 1015.0
20260905225401 97 131 0.0 4.0 0.00 0.00 0.00 32 1014.8
20260905225301 97 125 1.0 4.0 0.00 0.00 0.00 32 1015.0
20260905225202 97 120 2.0 4.0 0.00 0.00 0.00 32 1014.8
20260905225101 97 111 2.0 4.0 0.00 0.00 0.00 32 1014.9
20260905225001 97 102 2.0 4.0 0.00 0.00 0.00 32 1014.8
20260905224901 97 95 2.0 4.0 0.00 0.00 0.00 32 1014.9
20260905224804 97 91 2.0 4.0 0.00 0.00 0.00 32 1014.9
20260905224701 97 90 1.0 4.0 0.00 0.00 0.00 32 1015.0
20260905224501 97 90 2.0 4.0 0.00 0.00 0.00 31 1014.9
20260905224401 97 90 3.0 4.0 0.00 0.00 0.00 31 1014.9
20260905224302 97 95 2.0 4.0 0.00 0.00 0.00 32 1014.9
20260905224202 97 101 2.0 4.0 0.00 0.00 0.00 31 1014.8
20260905224101 97 108 2.0 4.0 0.00 0.00 0.00 31 1014.9
20260905224001 97 112 2.0 4.0 0.00 0.00 0.00 31 1014.9
20260905223901 97 114 3.0 4.0 0.00 0.00 0.00 31 1015.0
20260905223802 97 120 2.0 4.0 0.00 0.00 0.00 32 1014.9
20260905223701 97 123 1.0 4.0 0.00 0.00 0.00 32 1014.9
20260905223601 97 132 2.0 4.0 0.00 0.00 0.00 32 1015.0
20260905223401 97 135 2.0 4.0 0.00 0.00 0.00 31 1014.9
20260905223304 97 139 2.0 4.0 0.00 0.00 0.00 31 1014.9
20260905223201 97 141 4.0 4.0 0.00 0.00 0.00 31 1014.9
20260905223101 97 152 3.0 4.0 0.00 0.00 0.00 32 1015.0
20260905223001 97 168 2.0 2.0 0.00 0.00 0.00 32 1014.8
20260905222901 97 189 1.0 2.0 0.00 0.00 0.00 32 1015.0
20260905222802 97 194 0.0 2.0 0.00 0.00 0.00 32 1014.9
20260905222701 97 194 0.0 2.0 0.00 0.00 0.00 31 1015.0
20260905222501 97 183 1.0 3.0 0.00 0.00 0.00 31 1015.0
20260905222401 97 171 1.0 3.0 0.00 0.00 0.00 31 1015.0
20260905222202 97 147 1.0 3.0 0.00 0.00 0.00 32 1015.0
20260905222101 97 136 1.0 3.0 0.00 0.00 0.00 32 1015.2
20260905221901 97 130 0.0 3.0 0.00 0.00 0.00 33 1015.0
20260905221804 97 135 0.0 3.0 0.00 0.00 0.00 32 1015.1
20260905221701 97 140 0.0 3.0 0.00 0.00 0.00 32 1015.1
20260905221601 97 142 1.0 3.0 0.00 0.00 0.00 32 1015.2
20260905221501 97 143 2.0 3.0 0.00 0.00 0.00 32 1015.1
20260905221402 97 150 2.0 2.0 0.00 0.00 0.00 32 1015.2
20260905221201 97 158 1.0 2.0 0.00 0.00 0.00 32 1015.1
20260905221101 97 163 1.0 2.0 0.00 0.00 0.00 32 1015.1
20260905221001 97 171 1.0 2.0 0.00 0.00 0.00 32 1015.2
20260905220901 97 165 1.0 2.0 0.00 0.00 0.00 32 1015.2
20260905220702 97 92 2.0 4.0 0.00 0.00 0.00 31 1015.1
20260905220602 98 90 0.0 4.0 0.00 0.00 0.00 30 1015.3
20260905220501 98 101 0.0 4.0 0.00 0.00 0.00 30 1015.1
20260905220401 98 117 0.0 4.0 0.00 0.00 0.00 30 1015.2
20260905220304 98 126 0.0 4.0 0.00 0.00 0.00 30 1015.2
20260905220201 98 135 0.0 4.0 0.00 0.00 0.00 30 1015.2
20260905220001 98 137 0.0 4.0 0.00 0.00 0.00 30 1015.2
20260905215902 98 138 1.0 5.0 0.00 0.00 0.00 30 1015.2
20260905215701 98 140 3.0 5.0 0.00 0.00 0.00 30 1015.3
20260905215601 99 146 3.0 5.0 0.00 0.00 0.00 31 1015.4
20260905215501 99 144 2.0 5.0 0.00 0.00 0.00 31 1015.3
20260905215401 99 138 2.0 5.0 0.00 0.00 0.00 31 1015.3
20260905215202 99 136 2.0 5.0 0.00 0.00 0.00 31 1015.2
20260905215102 99 134 2.0 5.0 0.00 0.00 0.00 30 1015.3
20260905215001 99 133 2.0 5.0 0.00 0.00 0.00 30 1015.3
20260905214902 99 130 4.0 5.0 0.00 0.00 0.00 30 1015.3
20260905214804 99 125 3.0 5.0 0.00 0.00 0.00 30 1015.3
20260905214701 99 129 2.0 5.0 0.00 0.00 0.00 30 1015.4
20260905214602 99 125 2.0 5.0 0.00 0.00 0.00 30 1015.3
20260905214502 99 120 2.0 5.0 0.00 0.00 0.00 30 1015.4
20260905214401 99 124 1.0 5.0 0.00 0.00 0.00 30 1015.3
20260905214301 99 99 2.0 6.0 0.00 0.00 0.00 30 1015.4
20260905214201 99 76 2.0 6.0 0.00 0.00 0.00 31 1015.4
20260905214101 99 75 3.0 6.0 0.00 0.00 0.00 30 1015.4
20260905214001 100 75 2.0 6.0 0.00 0.00 0.00 28 1015.5
20260905213902 100 78 2.0 6.0 0.00 0.00 0.00 28 1015.5
20260905213801 100 102 4.0 6.0 0.00 0.00 0.00 27 1015.5
20260905213701 100 103 3.0 6.0 0.00 0.00 0.00 28 1015.4
20260905213501 100 117 2.0 6.0 0.00 0.00 0.00 28 1015.4
20260905213304 100 143 4.0 6.0 0.00 0.00 0.00 27 1015.5
20260905213002 101 147 2.0 4.0 0.00 0.00 0.00 27 1015.6
20260905212901 101 131 2.0 4.0 0.00 0.00 0.00 27 1015.4
20260905212801 101 134 2.0 4.0 0.00 0.00 0.00 27 1015.6
20260905212701 101 135 2.0 4.0 0.00 0.00 0.00 27 1015.5
20260905212501 101 151 1.0 4.0 0.00 0.00 0.00 27 1015.6
20260905212402 101 150 2.0 4.0 0.00 0.00 0.00 27 1015.6
20260905212301 101 134 2.0 4.0 0.00 0.00 0.00 28 1015.6
20260905212201 101 132 2.0 4.0 0.00 0.00 0.00 28 1015.6
20260905212101 101 142 2.0 4.0 0.00 0.00 0.00 28 1015.6
20260905212001 101 146 3.0 4.0 0.00 0.00 0.00 28 1015.6
20260905211902 101 156 2.0 4.0 0.00 0.00 0.00 28 1015.6
20260905211804 101 162 0.0 4.0 0.00 0.00 0.00 28 1015.6
20260905211702 101 157 1.0 4.0 0.00 0.00 0.00 29 1015.6
20260905211602 101 149 2.0 5.0 0.00 0.00 0.00 29 1015.7
20260905211501 101 151 2.0 5.0 0.00 0.00 0.00 28 1015.6
20260905211401 101 148 3.0 5.0 0.00 0.00 0.00 27 1015.6
20260905211301 101 146 3.0 5.0 0.00 0.00 0.00 28 1015.7
20260905211101 101 136 2.0 5.0 0.00 0.00 0.00 29 1015.6
20260905210902 101 132 3.0 5.0 0.00 0.00 0.00 28 1015.6
20260905210801 101 127 4.0 5.0 0.00 0.00 0.00 27 1015.6
20260905210601 101 125 3.0 4.0 0.00 0.00 0.00 28 1015.7
20260905210501 102 103 2.0 4.0 0.00 0.00 0.00 28 1015.6
20260905210402 102 109 2.0 4.0 0.00 0.00 0.00 28 1015.7
20260905210305 102 191 2.0 4.0 0.00 0.00 0.00 28 1015.7
20260905210202 102 215 1.0 4.0 0.00 0.00 0.00 28 1015.6
20260905205901 101 188 0.0 5.0 0.00 0.00 0.00 30 1015.6
20260905205801 101 171 0.0 5.0 0.00 0.00 0.00 29 1015.8
20260905205702 101 162 0.0 5.0 0.00 0.00 0.00 29 1015.8
20260905205601 101 164 1.0 5.0 0.00 0.00 0.00 28 1015.8
20260905205501 101 162 1.0 5.0 0.00 0.00 0.00 28 1015.8
20260905205401 101 156 3.0 5.0 0.00 0.00 0.00 28 1015.8
20260905205201 101 138 2.0 5.0 0.00 0.00 0.00 27 1015.8
20260905205101 101 136 1.0 5.0 0.00 0.00 0.00 28 1015.9
20260905205001 101 126 2.0 5.0 0.00 0.00 0.00 28 1015.8
20260905204902 101 121 4.0 5.0 0.00 0.00 0.00 28 1015.9
20260905204804 101 132 4.0 5.0 0.00 0.00 0.00 28 1015.9
20260905204701 101 158 2.0 4.0 0.00 0.00 0.00 28 1015.9
20260905204601 101 161 2.0 4.0 0.00 0.00 0.00 29 1015.9
20260905204502 101 125 1.0 7.0 0.00 0.00 0.00 28 1015.9
20260905204401 100 120 1.0 7.0 0.00 0.00 0.00 27 1015.9
20260905204301 100 121 1.0 7.0 0.00 0.00 0.00 27 1015.9
20260905204201 100 123 3.0 7.0 0.00 0.00 0.00 27 1016.0
20260905204101 100 125 1.0 7.0 0.00 0.00 0.00 28 1016.1
20260905203901 100 112 1.0 8.0 0.00 0.00 0.00 29 1016.0
20260905203801 100 125 2.0 8.0 0.00 0.00 0.00 28 1016.1
20260905203701 100 123 2.0 8.0 0.00 0.00 0.00 28 1016.0
20260905203601 100 110 3.0 8.0 0.00 0.00 0.00 28 1016.1
20260905203501 100 107 5.0 8.0 0.00 0.00 0.00 27 1016.1
20260905203402 100 97 2.0 8.0 0.00 0.00 0.00 27 1016.1
20260905203303 100 98 2.0 8.0 0.00 0.00 0.00 28 1016.0
20260905203202 101 107 2.0 8.0 0.00 0.00 0.00 28 1016.2
20260905202701 101 83 4.0 7.0 0.00 0.00 0.00 28 1016.3
20260905202402 102 246 4.0 7.0 0.00 0.00 0.00 29 1016.2
20260905202302 102 259 1.0 3.0 0.00 0.00 0.00 30 1016.3
20260905202201 102 280 2.0 3.0 0.00 0.00 0.00 30 1016.3
20260905202101 102 303 2.0 3.0 0.00 0.00 0.00 30 1016.3
20260905202001 102 349 2.0 3.0 0.00 0.00 0.00 30 1016.3
20260905201902 102 31 2.0 3.0 0.00 0.00 0.00 30 1016.4
20260905201804 101 47 2.0 3.0 0.00 0.00 0.00 29 1016.5
20260905201702 101 79 2.0 3.0 0.00 0.00 0.00 30 1016.5
20260905201501 101 61 0.0 3.0 0.00 0.00 0.00 30 1016.5
20260905201201 101 278 1.0 3.0 0.00 0.00 0.00 30 1016.4
20260905201101 101 270 1.0 3.0 0.00 0.00 0.00 30 1016.5
20260905201001 101 269 2.0 3.0 0.00 0.00 0.00 30 1016.4
20260905200901 101 266 2.0 3.0 0.00 0.00 0.00 30 1016.6
20260905200802 101 259 2.0 3.0 0.00 0.00 0.00 30 1016.5
20260905200702 101 267 2.0 4.0 0.00 0.00 0.00 30 1016.5
20260905200601 100 258 1.0 4.0 0.00 0.00 0.00 30 1016.7
20260905200501 100 250 1.0 4.0 0.00 0.00 0.00 30 1016.6
20260905200304 100 193 1.0 6.0 0.00 0.00 0.00 30 1016.5
20260905200201 100 178 1.0 6.0 0.00 0.00 0.00 30 1016.5
20260905200001 100 151 1.0 6.0 0.00 0.00 0.00 30 1016.6
20260905195901 100 139 0.0 6.0 0.00 0.00 0.00 30 1016.6
20260905195802 100 140 2.0 6.0 0.00 0.00 0.00 30 1016.7
20260905195701 100 142 2.0 6.0 0.00 0.00 0.00 30 1016.8
20260905195501 100 147 2.0 6.0 0.00 0.00 0.00 30 1016.7
20260905195301 100 137 3.0 6.0 0.00 0.00 0.00 30 1016.8
20260905195202 100 127 4.0 6.0 0.00 0.00 0.00 30 1016.6
20260905195102 100 131 4.0 7.0 0.00 0.00 0.00 30 1016.7
20260905195001 100 133 5.0 7.0 0.00 0.00 0.00 30 1016.7
20260905194901 100 140 2.0 7.0 0.00 0.00 0.00 30 1016.7
20260905194802 100 132 3.0 7.0 0.00 0.00 0.00 30 1016.6
20260905194701 100 128 3.0 7.0 0.00 0.00 0.00 29 1016.6
20260905194502 100 124 4.0 7.0 0.00 0.00 0.00 28 1016.7
20260905194401 100 131 4.0 7.0 0.00 0.00 0.00 28 1016.8
20260905194301 100 131 3.0 7.0 0.00 0.00 0.00 30 1016.7
20260905194201 100 140 4.0 7.0 0.00 0.00 0.00 29 1016.7
20260905194101 100 143 4.0 5.0 0.00 0.00 0.00 29 1016.7
20260905194002 100 138 4.0 5.0 0.00 0.00 0.00 29 1016.7
20260905193902 100 138 2.0 4.0 0.00 0.00 0.00 30 1016.9
20260905193801 101 144 2.0 4.0 0.00 0.00 0.00 30 1016.8
20260905193401 101 117 3.0 4.0 0.00 0.00 0.00 30 1016.8
20260905193202 101 109 4.0 5.0 0.00 0.00 0.00 30 1016.8
20260905193101 101 104 4.0 5.0 0.00 0.00 0.00 30 1016.8
20260905193001 101 110 2.0 5.0 0.00 0.00 0.00 30 1016.9
20260905192901 101 108 4.0 5.0 0.00 0.00 0.00 30 1016.8
20260905192801 101 110 2.0 5.0 0.00 0.00 0.00 31 1016.8
20260905192702 100 111 2.0 5.0 0.00 0.00 0.00 31 1016.9
20260905192601 100 107 2.0 5.0 0.00 0.00 0.00 30 1016.9
20260905192502 100 111 3.0 5.0 0.00 0.00 0.00 30 1016.8
20260905192401 100 122 3.0 5.0 0.00 0.00 0.00 30 1016.8
20260905192301 101 125 4.0 5.0 0.00 0.00 0.00 30 1016.9
20260905192201 101 137 4.0 5.0 0.00 0.00 0.00 30 1016.8
20260905192102 101 135 4.0 5.0 0.00 0.00 0.00 30 1016.8
20260905192002 101 138 2.0 5.0 0.00 0.00 0.00 30 1016.8
20260905191901 101 133 2.0 7.0 0.00 0.00 0.00 30 1016.8
20260905191701 101 143 2.0 7.0 0.00 0.00 0.00 30 1016.9
20260905191501 101 141 2.0 7.0 0.00 0.00 0.00 31 1016.9
20260905191402 100 133 2.0 7.0 0.00 0.00 0.00 31 1016.9
20260905191201 100 133 3.0 7.0 0.00 0.00 0.00 31 1017.0
20260905191101 100 136 2.0 7.0 0.00 0.00 0.00 30 1016.9
20260905191001 101 120 4.0 7.0 0.00 0.00 0.00 31 1016.9
20260905190902 101 120 4.0 7.0 0.00 0.00 0.00 30 1017.1
20260905190804 101 116 4.0 7.0 0.00 0.00 0.00 31 1017.0
20260905190702 101 114 4.0 7.0 0.00 0.00 0.00 31 1017.0
20260905190602 101 125 2.0 7.0 0.00 0.00 0.00 31 1017.1
20260905190501 101 127 4.0 7.0 0.00 0.00 0.00 31 1016.9
20260905190401 100 139 2.0 7.0 0.00 0.00 0.00 31 1017.0
20260905190301 100 136 3.0 7.0 0.00 0.00 0.00 31 1017.0
20260905190201 100 139 2.0 7.0 0.00 0.00 0.00 31 1017.1
20260905190001 100 143 3.0 7.0 0.00 0.00 0.00 31 1017.0
20260905185901 100 153 3.0 7.0 0.00 0.00 0.00 30 1017.0
20260905185801 100 167 5.0 7.0 0.00 0.00 0.00 30 1017.2
20260905185701 100 176 3.0 4.0 0.00 0.00 0.00 31 1017.2
20260905185202 100 151 2.0 4.0 0.00 0.00 0.00 31 1017.2
20260905185101 100 173 2.0 4.0 0.00 0.00 0.00 31 1017.2
20260905185001 100 190 2.0 4.0 0.00 0.00 0.00 31 1017.2
20260905184901 100 173 1.0 4.0 0.00 0.00 0.00 31 1017.2
20260905184801 100 168 0.0 4.0 0.00 0.00 0.00 32 1017.2
20260905184602 100 168 1.0 4.0 0.00 0.00 0.00 31 1017.2
20260905184502 100 150 1.0 4.0 0.00 0.00 0.00 31 1017.2
20260905184401 100 152 1.0 4.0 0.00 0.00 0.00 31 1017.3
20260905184301 100 144 2.0 4.0 0.00 0.00 0.00 31 1017.4
20260905184201 99 135 2.0 4.0 0.00 0.00 0.00 34 1017.2
20260905184101 99 119 3.0 4.0 0.00 0.00 0.00 34 1017.2
20260905184001 99 123 2.0 4.0 0.00 0.00 0.00 35 1017.2
20260905183902 99 166 1.0 4.0 0.00 0.00 0.00 35 1017.2
20260905183804 98 122 1.0 4.0 0.00 0.00 0.00 35 1017.2
20260905183702 98 118 1.0 4.0 0.00 0.00 0.00 35 1017.4
20260905183601 98 125 1.0 4.0 0.00 0.00 0.00 35 1017.3
20260905183202 98 44 2.0 4.0 0.00 0.00 0.00 35 1017.3
20260905183102 98 303 1.0 4.0 0.00 0.00 0.00 35 1017.5
20260905182901 98 66 2.0 3.0 0.00 0.00 0.00 37 1017.5
20260905182801 98 241 2.0 3.0 0.00 0.00 0.00 37 1017.5
20260905182701 97 157 0.0 3.0 0.00 0.00 0.00 37 1017.5
20260905182602 97 146 0.0 3.0 0.00 0.00 0.00 36 1017.5
20260905182501 97 162 1.0 4.0 0.00 0.00 0.00 36 1017.5
20260905182401 97 179 2.0 4.0 0.00 0.00 0.00 36 1017.6
20260905182306 97 184 0.0 4.0 0.00 0.00 0.00 36 1017.6
20260905182201 97 177 0.0 4.0 0.00 0.00 0.00 36 1017.5
20260905182101 97 171 1.0 4.0 0.00 0.00 0.00 36 1017.6
20260905181902 97 144 2.0 5.0 0.00 0.00 0.00 35 1017.6
20260905181802 97 140 2.0 5.0 0.00 0.00 0.00 35 1017.6
20260905181701 97 148 2.0 5.0 0.00 0.00 0.00 36 1017.7
20260905181601 97 151 2.0 5.0 0.00 0.00 0.00 35 1017.7
20260905181501 97 150 3.0 5.0 0.00 0.00 0.00 35 1017.5
20260905181302 96 152 2.0 5.0 0.00 0.00 0.00 35 1017.8
20260905181201 96 155 2.0 5.0 0.00 0.00 0.00 35 1017.7
20260905181101 96 158 2.0 5.0 0.00 0.00 0.00 34 1017.7
20260905181001 97 166 4.0 5.0 0.00 0.00 0.00 34 1017.8
20260905180702 97 185 2.0 4.0 0.00 0.00 0.00 35 1017.8
20260905180601 98 187 2.0 4.0 0.00 0.00 0.00 34 1017.9
20260905180501 98 181 2.0 4.0 0.00 0.00 0.00 34 1017.9
20260905180401 98 179 2.0 4.0 0.00 0.00 0.00 34 1017.9
20260905180201 98 186 2.0 4.0 0.00 0.00 0.00 34 1017.9
20260905180002 98 173 2.0 4.0 0.00 0.00 0.00 34 1017.9
20260905175901 98 172 2.0 5.0 0.00 0.00 0.00 34 1017.9
20260905175801 98 165 2.0 5.0 0.00 0.00 0.00 34 1018.0
20260905175701 98 150 2.0 5.0 0.00 0.00 0.00 34 1018.0
20260905175402 99 129 4.0 7.0 0.00 0.00 0.00 34 1018.0
20260905175202 99 133 2.0 7.0 0.00 0.00 0.00 34 1017.8
20260905175101 99 131 1.0 7.0 0.00 0.00 0.00 34 1018.0
20260905174901 99 130 3.0 7.0 0.00 0.00 0.00 33 1018.0
20260905174802 99 131 4.0 7.0 0.00 0.00 0.00 33 1018.1
20260905174702 99 129 4.0 7.0 0.00 0.00 0.00 34 1017.9
20260905174602 99 134 4.0 7.0 0.00 0.00 0.00 34 1018.0
20260905174501 100 135 4.0 6.0 0.00 0.00 0.00 32 1018.0
20260905174401 99 143 4.0 6.0 0.00 0.00 0.00 35 1018.0
20260905174302 100 137 4.0 6.0 0.00 0.00 0.00 32 1018.1
20260905174101 100 152 2.0 6.0 0.00 0.00 0.00 32 1018.1
20260905174001 100 154 2.0 6.0 0.00 0.00 0.00 32 1018.0
20260905173901 100 149 2.0 6.0 0.00 0.00 0.00 32 1018.0